Time,TemperatureF,DewpointF,PressureIn,WindDirection,WindDirectionDegrees,WindSpeedMPH,WindSpeedGustMPH,Humidity,HourlyPrecipIn,Conditions,Clouds,dailyrainin,SolarRadiationWatts/m^2,SoftwareType,DateUTC
2013-03-06 00:00:00,34.1,30.6,29.99,ENE,64,3.0,6.0,87,0.00,,OVC021,0.00,0.00,VWS V14.01,2013-03-06 05:00:00,
2013-03-06 00:01:00,34.0,30.5,29.99,SW,217,2.0,6.0,87,0.00,,OVC021,0.00,0.00,VWS V14.01,2013-03-06 05:01:00,
2013-03-06 00:05:00,34.0,30.8,29.99,ENE,71,0.0,0.0,88,0.00,,OVC039,0.00,0.00,VWS V14.01,2013-03-06 05:05:00,
2013-03-06 00:06:00,34.0,30.8,29.99,ENE,71,0.0,0.0,88,0.00,,OVC039,0.00,0.00,VWS V14.01,2013-03-06 05:06:00,
2013-03-06 00:10:00,33.8,30.6,29.99,ENE,58,0.0,5.0,88,0.00,,OVC039,0.00,0.00,VWS V14.01,2013-03-06 05:10:00,
2013-03-06 00:11:00,33.8,30.6,29.99,ENE,58,0.0,5.0,88,0.00,,OVC039,0.00,0.00,VWS V14.01,2013-03-06 05:11:00,
2013-03-06 00:15:00,33.8,30.6,29.99,NE,52,0.0,5.0,88,0.00,,OVC039,0.00,0.00,VWS V14.01,2013-03-06 05:15:00,
2013-03-06 00:16:00,33.8,30.6,30.00,NE,52,0.0,5.0,88,0.00,,OVC039,0.00,0.00,VWS V14.01,2013-03-06 05:16:00,
2013-03-06 00:21:00,33.7,30.5,30.00,East,93,0.0,5.0,88,0.00,,OVC039,0.00,0.00,VWS V14.01,2013-03-06 05:21:00,
2013-03-06 00:26:00,33.7,30.5,30.00,East,93,0.0,5.0,88,0.00,,OVC039,0.00,0.00,VWS V14.01,2013-03-06 05:26:00,
2013-03-06 00:27:00,33.7,30.5,30.00,East,95,0.0,5.0,88,0.00,,OVC039,0.00,0.00,VWS V14.01,2013-03-06 05:27:00,
2013-03-06 00:30:00,33.1,30.2,30.01,NE,48,7.0,7.0,89,0.00,,FEW080,0.00,0.00,VWS V14.01,2013-03-06 05:30:00,
2013-03-06 00:31:00,33.7,30.5,30.00,East,95,0.0,5.0,88,0.00,,OVC039,0.00,0.00,VWS V14.01,2013-03-06 05:31:00,
2013-03-06 00:32:00,33.7,30.5,30.00,East,95,0.0,0.0,88,0.00,,OVC039,0.00,0.00,VWS V14.01,2013-03-06 05:32:00,
2013-03-06 00:33:00,33.7,30.5,30.00,East,92,0.0,0.0,88,0.00,,OVC039,0.00,0.00,VWS V14.01,2013-03-06 05:33:00,
2013-03-06 00:36:00,33.5,30.3,30.00,ENE,58,0.0,3.0,88,0.00,,OVC039,0.00,0.00,VWS V14.01,2013-03-06 05:36:00,
2013-03-06 00:37:00,33.5,30.3,30.00,ENE,58,0.0,3.0,88,0.00,,OVC039,0.00,0.00,VWS V14.01,2013-03-06 05:37:00,
2013-03-06 00:38:00,33.5,30.6,30.00,ENE,59,0.0,3.0,89,0.00,,OVC039,0.00,0.00,VWS V14.01,2013-03-06 05:38:00,
2013-03-06 00:41:00,33.5,30.6,30.00,NE,56,0.0,3.0,89,0.00,,OVC039,0.00,0.00,VWS V14.01,2013-03-06 05:41:00,
2013-03-06 00:42:00,33.5,30.6,30.00,NE,56,0.0,3.0,89,0.00,,OVC039,0.00,0.00,VWS V14.01,2013-03-06 05:42:00,
2013-03-06 00:44:00,33.4,30.5,30.00,NE,35,0.0,3.0,89,0.00,,OVC039,0.00,0.00,VWS V14.01,2013-03-06 05:44:00,
2013-03-06 00:47:00,33.4,30.5,30.00,NE,56,0.0,3.0,89,0.00,,OVC039,0.00,0.00,VWS V14.01,2013-03-06 05:47:00,
2013-03-06 00:49:00,33.4,30.5,30.00,ENE,71,2.0,3.0,89,0.00,,OVC039,0.00,0.00,VWS V14.01,2013-03-06 05:49:00,
2013-03-06 00:52:00,33.2,30.3,30.00,NE,49,0.0,3.0,89,0.00,,OVC039,0.00,0.00,VWS V14.01,2013-03-06 05:52:00,
2013-03-06 00:53:00,33.2,30.3,30.00,NE,49,0.0,3.0,89,0.00,,OVC039,0.00,0.00,VWS V14.01,2013-03-06 05:53:00,
2013-03-06 00:54:00,33.2,30.3,30.00,NE,49,2.0,3.0,89,0.00,,OVC039,0.00,0.00,VWS V14.01,2013-03-06 05:54:00,
2013-03-06 00:57:00,33.2,30.3,30.00,East,92,0.0,3.0,89,0.00,,OVC039,0.00,0.00,VWS V14.01,2013-03-06 05:57:00,
2013-03-06 00:58:00,33.2,30.3,30.00,East,90,0.0,3.0,89,0.00,,OVC039,0.00,0.00,VWS V14.01,2013-03-06 05:58:00,
2013-03-06 00:59:00,33.2,30.3,30.00,NE,44,1.0,3.0,89,0.00,,OVC039,0.00,0.00,VWS V14.01,2013-03-06 05:59:00,
2013-03-06 01:00:00,32.8,30.2,30.01,NE,56,0.0,7.0,90,0.00,,FEW080,0.00,0.00,VWS V14.01,2013-03-06 06:00:00,
2013-03-06 01:02:00,33.2,30.3,30.01,NE,54,0.0,0.0,89,0.00,,OVC039,0.00,0.00,VWS V14.01,2013-03-06 06:02:00,
2013-03-06 01:03:00,33.2,30.3,30.01,NE,54,0.0,0.0,89,0.00,,OVC039,0.00,0.00,VWS V14.01,2013-03-06 06:03:00,
2013-03-06 01:05:00,33.2,30.3,30.01,NE,47,0.0,4.0,89,0.00,,OVC039,0.00,0.00,VWS V14.01,2013-03-06 06:05:00,
2013-03-06 01:08:00,33.2,30.3,30.01,ENE,76,0.0,5.0,89,0.00,,OVC039,0.00,0.00,VWS V14.01,2013-03-06 06:08:00,
2013-03-06 01:11:00,33.1,30.2,30.01,SE,141,1.0,5.0,89,0.00,,OVC039,0.00,0.00,VWS V14.01,2013-03-06 06:11:00,
2013-03-06 01:13:00,33.1,30.2,30.01,ESE,114,1.0,5.0,89,0.00,,OVC039,0.00,0.00,VWS V14.01,2013-03-06 06:13:00,
2013-03-06 01:16:00,33.1,30.2,30.01,NE,49,0.0,5.0,89,0.00,,OVC039,0.00,0.00,VWS V14.01,2013-03-06 06:16:00,
2013-03-06 01:18:00,33.1,30.2,30.01,NE,42,0.0,5.0,89,0.00,,OVC039,0.00,0.00,VWS V14.01,2013-03-06 06:18:00,
2013-03-06 01:21:00,33.1,30.2,30.01,ENE,61,1.0,5.0,89,0.00,,OVC039,0.00,0.00,VWS V14.01,2013-03-06 06:21:00,
2013-03-06 01:23:00,33.1,30.2,30.01,ENE,61,0.0,5.0,89,0.00,,OVC039,0.00,0.00,VWS V14.01,2013-03-06 06:23:00,
2013-03-06 01:26:00,33.1,30.2,30.01,ENE,58,0.0,5.0,89,0.00,,OVC039,0.00,0.00,VWS V14.01,2013-03-06 06:26:00,
2013-03-06 01:28:00,33.1,30.2,30.01,ENE,58,0.0,5.0,89,0.00,,OVC039,0.00,0.00,VWS V14.01,2013-03-06 06:28:00,
2013-03-06 01:29:00,33.1,30.2,30.01,ENE,58,0.0,5.0,89,0.00,,OVC039,0.00,0.00,VWS V14.01,2013-03-06 06:29:00,
2013-03-06 01:30:00,32.4,30.1,30.01,NNE,32,0.0,5.0,91,0.00,,FEW080,0.00,0.00,VWS V14.01,2013-03-06 06:30:00,
2013-03-06 01:31:00,33.1,30.2,30.01,NE,48,7.0,7.0,89,0.00,,OVC039,0.00,0.00,VWS V14.01,2013-03-06 06:31:00,
2013-03-06 01:34:00,32.9,30.0,30.01,North,10,0.0,7.0,89,0.00,,OVC039,0.00,0.00,VWS V14.01,2013-03-06 06:34:00,
2013-03-06 01:36:00,32.9,30.3,30.01,NNE,21,0.0,7.0,90,0.00,,OVC039,0.00,0.00,VWS V14.01,2013-03-06 06:36:00,
2013-03-06 01:39:00,32.9,30.3,30.01,ENE,72,1.0,7.0,90,0.00,,OVC039,0.00,0.00,VWS V14.01,2013-03-06 06:39:00,
2013-03-06 01:40:00,32.9,30.3,30.01,North,10,2.0,7.0,90,0.00,,OVC039,0.00,0.00,VWS V14.01,2013-03-06 06:40:00,
2013-03-06 01:42:00,32.9,30.3,30.01,NNE,20,0.0,7.0,90,0.00,,OVC039,0.00,0.00,VWS V14.01,2013-03-06 06:42:00,
2013-03-06 01:44:00,32.9,30.3,30.01,NE,48,3.0,7.0,90,0.00,,OVC039,0.00,0.00,VWS V14.01,2013-03-06 06:44:00,
2013-03-06 01:45:00,32.9,30.3,30.01,NE,48,0.0,7.0,90,0.00,,OVC039,0.00,0.00,VWS V14.01,2013-03-06 06:45:00,
2013-03-06 01:47:00,32.9,30.3,30.01,NE,48,0.0,7.0,90,0.00,,OVC039,0.00,0.00,VWS V14.01,2013-03-06 06:47:00,
2013-03-06 01:50:00,32.8,30.2,30.01,NNE,25,0.0,7.0,90,0.00,,OVC039,0.00,0.00,VWS V14.01,2013-03-06 06:50:00,
2013-03-06 01:52:00,32.8,30.2,30.01,NNE,25,0.0,7.0,90,0.00,,OVC039,0.00,0.00,VWS V14.01,2013-03-06 06:52:00,
2013-03-06 01:55:00,32.8,30.2,30.01,NNE,25,0.0,7.0,90,0.00,,OVC039,0.00,0.00,VWS V14.01,2013-03-06 06:55:00,
2013-03-06 01:57:00,32.8,30.2,30.01,NNE,25,0.0,7.0,90,0.00,,OVC039,0.00,0.00,VWS V14.01,2013-03-06 06:57:00,
2013-03-06 02:00:00,32.8,30.2,30.01,NE,55,0.0,7.0,90,0.00,,OVC039,0.00,0.00,VWS V14.01,2013-03-06 07:00:00,
2013-03-06 02:01:00,32.8,30.2,30.01,NE,56,0.0,7.0,90,0.00,,OVC039,0.00,0.00,VWS V14.01,2013-03-06 07:01:00,
2013-03-06 02:02:00,32.8,30.2,30.01,NE,56,1.0,2.0,90,0.00,,OVC028,0.00,0.00,VWS V14.01,2013-03-06 07:02:00,
2013-03-06 02:05:00,32.7,30.1,30.01,NNE,28,0.0,2.0,90,0.00,,OVC028,0.00,0.00,VWS V14.01,2013-03-06 07:05:00,
2013-03-06 02:06:00,32.7,30.1,30.01,NNE,28,0.0,2.0,90,0.00,,OVC028,0.00,0.00,VWS V14.01,2013-03-06 07:06:00,
2013-03-06 02:07:00,32.7,30.1,30.01,NNE,28,0.0,2.0,90,0.00,,OVC028,0.00,0.00,VWS V14.01,2013-03-06 07:07:00,
2013-03-06 02:10:00,32.7,30.4,30.01,NNE,21,0.0,2.0,91,0.00,,OVC028,0.00,0.00,VWS V14.01,2013-03-06 07:10:00,
2013-03-06 02:11:00,32.7,30.4,30.01,NNE,21,0.0,2.0,91,0.00,,OVC028,0.00,0.00,VWS V14.01,2013-03-06 07:11:00,
2013-03-06 02:12:00,32.7,30.4,30.01,NNE,21,0.0,2.0,91,0.00,,OVC028,0.00,0.00,VWS V14.01,2013-03-06 07:12:00,
2013-03-06 02:15:00,32.7,30.4,30.01,NNE,18,0.0,2.0,91,0.00,,OVC028,0.00,0.00,VWS V14.01,2013-03-06 07:15:00,
2013-03-06 02:16:00,32.7,30.4,30.01,NNE,23,0.0,2.0,91,0.00,,OVC028,0.00,0.00,VWS V14.01,2013-03-06 07:16:00,
2013-03-06 02:18:00,32.7,30.4,30.01,NNE,23,0.0,2.0,91,0.00,,OVC028,0.00,0.00,VWS V14.01,2013-03-06 07:18:00,
2013-03-06 02:20:00,32.5,30.2,30.01,ENE,59,3.0,3.0,91,0.00,,OVC028,0.00,0.00,VWS V14.01,2013-03-06 07:20:00,
2013-03-06 02:21:00,32.5,30.2,30.01,ENE,69,3.0,5.0,91,0.00,,OVC028,0.00,0.00,VWS V14.01,2013-03-06 07:21:00,
2013-03-06 02:22:00,32.5,30.2,30.01,ENE,66,3.0,5.0,91,0.00,,OVC028,0.00,0.00,VWS V14.01,2013-03-06 07:22:00,
2013-03-06 02:23:00,32.5,30.2,30.01,ENE,59,0.0,5.0,91,0.00,,OVC028,0.00,0.00,VWS V14.01,2013-03-06 07:23:00,
2013-03-06 02:25:00,32.5,30.2,30.01,NNE,31,0.0,5.0,91,0.00,,OVC028,0.00,0.00,VWS V14.01,2013-03-06 07:25:00,
2013-03-06 02:26:00,32.5,30.2,30.01,NNE,31,0.0,5.0,91,0.00,,OVC028,0.00,0.00,VWS V14.01,2013-03-06 07:26:00,
2013-03-06 02:27:00,32.5,30.2,30.01,NNE,31,0.0,5.0,91,0.00,,OVC028,0.00,0.00,VWS V14.01,2013-03-06 07:27:00,
2013-03-06 02:28:00,32.5,30.2,30.01,NNE,31,0.0,5.0,91,0.00,,OVC028,0.00,0.00,VWS V14.01,2013-03-06 07:28:00,
2013-03-06 02:30:00,32.4,30.1,30.01,NNE,32,0.0,5.0,91,0.00,,OVC028,0.00,0.00,VWS V14.01,2013-03-06 07:30:00,
2013-03-06 02:31:00,32.4,30.1,30.01,NNE,32,0.0,5.0,91,0.00,,OVC028,0.00,0.00,VWS V14.01,2013-03-06 07:31:00,
2013-03-06 02:32:00,32.4,30.1,30.01,NNE,32,0.0,0.0,91,0.00,,OVC028,0.00,0.00,VWS V14.01,2013-03-06 07:32:00,
2013-03-06 02:33:00,32.4,30.1,30.01,NNE,32,0.0,0.0,91,0.00,,OVC028,0.00,0.00,VWS V14.01,2013-03-06 07:33:00,
2013-03-06 02:35:00,32.4,30.1,30.01,NE,34,1.0,1.0,91,0.00,,OVC028,0.00,0.00,VWS V14.01,2013-03-06 07:35:00,
2013-03-06 02:37:00,32.4,30.1,30.01,NE,34,0.0,1.0,91,0.00,,OVC028,0.00,0.00,VWS V14.01,2013-03-06 07:37:00,
2013-03-06 02:38:00,32.4,30.3,30.01,ENE,65,0.0,2.0,92,0.00,,OVC028,0.00,0.00,VWS V14.01,2013-03-06 07:38:00,
2013-03-06 02:41:00,32.4,30.3,30.01,ENE,65,0.0,2.0,92,0.00,,OVC028,0.00,0.00,VWS V14.01,2013-03-06 07:41:00,
2013-03-06 02:42:00,32.4,30.3,30.01,NE,47,2.0,2.0,92,0.00,,OVC028,0.00,0.00,VWS V14.01,2013-03-06 07:42:00,
2013-03-06 02:44:00,32.4,30.3,30.01,NE,54,0.0,6.0,92,0.00,,OVC028,0.00,0.00,VWS V14.01,2013-03-06 07:44:00,
2013-03-06 02:47:00,32.2,30.1,30.02,NE,35,0.0,6.0,92,0.00,,OVC028,0.00,0.00,VWS V14.01,2013-03-06 07:47:00,
2013-03-06 02:48:00,32.2,30.1,30.02,NE,35,2.0,6.0,92,0.00,,OVC028,0.00,0.00,VWS V14.01,2013-03-06 07:48:00,
2013-03-06 02:49:00,32.2,30.1,30.02,NE,35,0.0,6.0,92,0.00,,OVC028,0.00,0.00,VWS V14.01,2013-03-06 07:49:00,
2013-03-06 02:52:00,32.2,30.1,30.02,NE,42,0.0,6.0,92,0.00,,OVC028,0.00,0.00,VWS V14.01,2013-03-06 07:52:00,
2013-03-06 02:53:00,32.2,30.1,30.02,NE,42,0.0,6.0,92,0.00,,OVC028,0.00,0.00,VWS V14.01,2013-03-06 07:53:00,
2013-03-06 02:54:00,32.2,30.1,30.02,NE,42,0.0,6.0,92,0.00,,OVC028,0.00,0.00,VWS V14.01,2013-03-06 07:54:00,
2013-03-06 02:57:00,32.2,30.1,30.02,NE,40,0.0,6.0,92,0.00,,OVC028,0.00,0.00,VWS V14.01,2013-03-06 07:57:00,
2013-03-06 02:59:00,32.2,30.1,30.02,NE,40,0.0,6.0,92,0.00,,OVC028,0.00,0.00,VWS V14.01,2013-03-06 07:59:00,
2013-03-06 03:00:00,32.1,30.3,30.01,East,88,2.0,6.0,93,0.00,,FEW080,0.00,0.00,VWS V14.01,2013-03-06 08:00:00,
2013-03-06 03:02:00,32.2,30.1,30.02,East,82,0.0,2.0,92,0.00,,OVC016,0.00,0.00,VWS V14.01,2013-03-06 08:02:00,
2013-03-06 03:04:00,32.2,30.1,30.02,East,82,0.0,2.0,92,0.00,,OVC016,0.00,0.00,VWS V14.01,2013-03-06 08:04:00,
2013-03-06 03:07:00,32.2,30.1,30.02,ENE,69,0.0,3.0,92,0.00,,OVC016,0.00,0.00,VWS V14.01,2013-03-06 08:07:00,
2013-03-06 03:09:00,32.2,30.1,30.02,NW,322,0.0,3.0,92,0.00,,OVC016,0.00,0.00,VWS V14.01,2013-03-06 08:09:00,
2013-03-06 03:10:00,32.2,30.1,30.02,NNE,13,0.0,3.0,92,0.00,,OVC016,0.00,0.00,VWS V14.01,2013-03-06 08:10:00,
2013-03-06 03:12:00,32.1,30.0,30.02,NE,51,0.0,3.0,92,0.00,,OVC016,0.00,0.00,VWS V14.01,2013-03-06 08:12:00,
2013-03-06 03:14:00,32.1,30.0,30.02,NE,44,0.0,4.0,92,0.00,,OVC016,0.00,0.00,VWS V14.01,2013-03-06 08:14:00,
2013-03-06 03:15:00,32.1,30.0,30.02,NE,44,0.0,4.0,92,0.00,,OVC016,0.00,0.00,VWS V14.01,2013-03-06 08:15:00,
2013-03-06 03:18:00,32.1,30.0,30.02,ENE,69,2.0,4.0,92,0.00,,OVC016,0.00,0.00,VWS V14.01,2013-03-06 08:18:00,
2013-03-06 03:19:00,32.1,30.0,30.02,ENE,66,0.0,4.0,92,0.00,,OVC016,0.00,0.00,VWS V14.01,2013-03-06 08:19:00,
2013-03-06 03:20:00,32.1,30.0,30.02,ENE,68,1.0,4.0,92,0.00,,OVC016,0.00,0.00,VWS V14.01,2013-03-06 08:20:00,
2013-03-06 03:23:00,32.1,30.0,30.02,NE,54,0.0,4.0,92,0.00,,OVC016,0.00,0.00,VWS V14.01,2013-03-06 08:23:00,
2013-03-06 03:24:00,32.1,30.3,30.02,NE,51,3.0,4.0,93,0.00,,OVC016,0.00,0.00,VWS V14.01,2013-03-06 08:24:00,
2013-03-06 03:25:00,32.1,30.3,30.02,NE,52,0.0,4.0,93,0.00,,OVC016,0.00,0.00,VWS V14.01,2013-03-06 08:25:00,
2013-03-06 03:26:00,32.1,30.3,30.02,ENE,66,3.0,4.0,93,0.00,,OVC016,0.00,0.00,VWS V14.01,2013-03-06 08:26:00,
2013-03-06 03:28:00,32.1,30.3,30.02,NE,49,2.0,7.0,93,0.00,,OVC016,0.00,0.00,VWS V14.01,2013-03-06 08:28:00,
2013-03-06 03:30:00,32.1,30.3,30.02,NE,47,4.0,7.0,93,0.00,,OVC016,0.00,0.00,VWS V14.01,2013-03-06 08:30:00,
2013-03-06 03:31:00,32.1,30.3,30.01,ENE,62,2.0,7.0,93,0.00,,OVC016,0.00,0.00,VWS V14.01,2013-03-06 08:31:00,
2013-03-06 03:34:00,32.1,30.3,30.01,ENE,65,2.0,6.0,93,0.00,,OVC016,0.00,0.00,VWS V14.01,2013-03-06 08:34:00,
2013-03-06 03:35:00,32.1,30.3,30.01,ENE,65,0.0,6.0,93,0.00,,OVC016,0.00,0.00,VWS V14.01,2013-03-06 08:35:00,
2013-03-06 03:36:00,32.1,30.3,30.01,ENE,64,2.0,6.0,93,0.00,,OVC016,0.00,0.00,VWS V14.01,2013-03-06 08:36:00,
2013-03-06 03:39:00,32.1,30.3,30.01,ENE,62,0.0,6.0,93,0.00,,OVC016,0.00,0.00,VWS V14.01,2013-03-06 08:39:00,
2013-03-06 03:40:00,32.1,30.3,30.01,ENE,62,0.0,6.0,93,0.00,,OVC016,0.00,0.00,VWS V14.01,2013-03-06 08:40:00,
2013-03-06 03:41:00,32.1,30.3,30.01,NE,38,1.0,6.0,93,0.00,,OVC016,0.00,0.00,VWS V14.01,2013-03-06 08:41:00,
2013-03-06 03:44:00,32.1,30.3,30.01,NE,38,0.0,6.0,93,0.00,,OVC016,0.00,0.00,VWS V14.01,2013-03-06 08:44:00,
2013-03-06 03:45:00,32.1,30.3,30.01,NE,47,0.0,6.0,93,0.00,,OVC016,0.00,0.00,VWS V14.01,2013-03-06 08:45:00,
2013-03-06 03:46:00,32.1,30.3,30.02,NE,47,0.0,6.0,93,0.00,,OVC016,0.00,0.00,VWS V14.01,2013-03-06 08:46:00,
2013-03-06 03:51:00,32.1,30.3,30.02,ENE,62,0.0,6.0,93,0.00,,OVC016,0.00,0.00,VWS V14.01,2013-03-06 08:51:00,
2013-03-06 03:56:00,32.1,30.3,30.02,NE,42,0.0,6.0,93,0.00,,OVC016,0.00,0.00,VWS V14.01,2013-03-06 08:56:00,
2013-03-06 03:57:00,32.1,30.3,30.02,NE,42,2.0,6.0,93,0.00,,OVC016,0.00,0.00,VWS V14.01,2013-03-06 08:57:00,
2013-03-06 04:00:00,32.1,30.6,30.03,NE,55,0.0,8.0,94,0.00,,FEW080,0.00,0.00,VWS V14.01,2013-03-06 09:00:00,
2013-03-06 04:01:00,32.1,30.3,30.01,NNE,32,0.0,6.0,93,0.00,,OVC016,0.00,0.00,VWS V14.01,2013-03-06 09:01:00,
2013-03-06 04:02:00,32.1,30.3,30.01,East,88,2.0,6.0,93,0.00,,OVC016,0.00,0.00,VWS V14.01,2013-03-06 09:02:00,
2013-03-06 04:06:00,32.1,30.3,30.01,ENE,73,0.0,11.0,93,0.00,,OVC008,0.00,0.00,VWS V14.01,2013-03-06 09:06:00,
2013-03-06 04:07:00,32.1,30.3,30.01,ENE,66,0.0,11.0,93,0.00,,OVC008,0.00,0.00,VWS V14.01,2013-03-06 09:07:00,
2013-03-06 04:11:00,32.1,30.3,30.01,NNE,25,1.0,11.0,93,0.00,,OVC008,0.00,0.00,VWS V14.01,2013-03-06 09:11:00,
2013-03-06 04:12:00,32.1,30.3,30.01,NNE,23,0.0,11.0,93,0.00,,OVC008,0.00,0.00,VWS V14.01,2013-03-06 09:12:00,
2013-03-06 04:17:00,32.1,30.6,30.03,NE,56,2.0,11.0,94,0.00,,OVC008,0.00,0.00,VWS V14.01,2013-03-06 09:17:00,
2013-03-06 04:18:00,32.1,30.6,30.03,NE,56,0.0,11.0,94,0.00,,OVC008,0.00,0.00,VWS V14.01,2013-03-06 09:18:00,
2013-03-06 04:22:00,32.1,30.6,30.03,NE,41,0.0,11.0,94,0.00,,OVC008,0.00,0.00,VWS V14.01,2013-03-06 09:22:00,
2013-03-06 04:23:00,32.1,30.6,30.03,NE,40,6.0,11.0,94,0.00,,OVC008,0.00,0.00,VWS V14.01,2013-03-06 09:23:00,
2013-03-06 04:27:00,32.1,30.6,30.03,SE,128,2.0,13.0,94,0.00,,OVC008,0.00,0.00,VWS V14.01,2013-03-06 09:27:00,
2013-03-06 04:28:00,32.1,30.6,30.03,ENE,64,2.0,13.0,94,0.00,,OVC008,0.00,0.00,VWS V14.01,2013-03-06 09:28:00,
2013-03-06 04:30:00,31.9,30.4,30.05,NE,40,2.0,7.0,94,0.00,,FEW080,0.00,0.00,VWS V14.01,2013-03-06 09:30:00,
2013-03-06 04:32:00,32.1,30.6,30.03,NE,48,1.0,1.0,94,0.00,,OVC008,0.00,0.00,VWS V14.01,2013-03-06 09:32:00,
2013-03-06 04:33:00,32.1,30.6,30.03,ENE,71,4.0,4.0,94,0.00,,OVC008,0.00,0.00,VWS V14.01,2013-03-06 09:33:00,
2013-03-06 04:37:00,32.1,30.6,30.03,NE,38,4.0,7.0,94,0.00,,OVC008,0.00,0.00,VWS V14.01,2013-03-06 09:37:00,
2013-03-06 04:38:00,32.1,30.6,30.03,NNE,31,0.0,7.0,94,0.00,,OVC008,0.00,0.00,VWS V14.01,2013-03-06 09:38:00,
2013-03-06 04:42:00,32.1,30.6,30.03,ENE,59,0.0,7.0,94,0.00,,OVC008,0.00,0.00,VWS V14.01,2013-03-06 09:42:00,
2013-03-06 04:43:00,32.1,30.6,30.03,ENE,59,0.0,7.0,94,0.00,,OVC008,0.00,0.00,VWS V14.01,2013-03-06 09:43:00,
2013-03-06 04:47:00,32.1,30.6,30.03,ENE,62,0.0,7.0,94,0.00,,OVC008,0.00,0.00,VWS V14.01,2013-03-06 09:47:00,
2013-03-06 04:48:00,32.1,30.6,30.03,ENE,62,1.0,7.0,94,0.00,,OVC008,0.00,0.00,VWS V14.01,2013-03-06 09:48:00,
2013-03-06 04:53:00,32.1,30.6,30.03,ENE,59,3.0,7.0,94,0.00,,OVC008,0.00,0.00,VWS V14.01,2013-03-06 09:53:00,
2013-03-06 04:54:00,32.1,30.6,30.03,ENE,62,5.0,7.0,94,0.00,,OVC008,0.00,0.00,VWS V14.01,2013-03-06 09:54:00,
2013-03-06 04:58:00,32.1,30.6,30.03,ENE,58,4.0,7.0,94,0.00,,OVC008,0.00,0.00,VWS V14.01,2013-03-06 09:58:00,
2013-03-06 04:59:00,32.1,30.6,30.03,ENE,68,3.0,8.0,94,0.00,,OVC008,0.00,0.00,VWS V14.01,2013-03-06 09:59:00,
2013-03-06 05:00:00,32.1,30.6,30.03,North,3,2.0,8.0,94,0.00,,OVC008,0.00,0.00,VWS V14.01,2013-03-06 10:00:00,
2013-03-06 05:03:00,32.1,30.6,30.03,NE,55,0.0,1.0,94,0.00,,OVC010,0.00,0.00,VWS V14.01,2013-03-06 10:03:00,
2013-03-06 05:04:00,31.9,30.4,30.03,ENE,71,1.0,5.0,94,0.00,,OVC010,0.00,0.00,VWS V14.01,2013-03-06 10:04:00,
2013-03-06 05:05:00,31.9,30.4,30.03,NE,38,2.0,5.0,94,0.00,,OVC010,0.00,0.00,VWS V14.01,2013-03-06 10:05:00,
2013-03-06 05:08:00,31.9,30.4,30.03,ENE,71,0.0,5.0,94,0.00,,OVC010,0.00,0.00,VWS V14.01,2013-03-06 10:08:00,
2013-03-06 05:09:00,31.9,30.4,30.03,NE,37,0.0,5.0,94,0.00,,OVC010,0.00,0.00,VWS V14.01,2013-03-06 10:09:00,
2013-03-06 05:10:00,31.9,30.4,30.03,ENE,71,3.0,5.0,94,0.00,,OVC010,0.00,0.00,VWS V14.01,2013-03-06 10:10:00,
2013-03-06 05:13:00,31.9,30.4,30.03,NE,55,0.0,5.0,94,0.00,,OVC010,0.00,0.00,VWS V14.01,2013-03-06 10:13:00,
2013-03-06 05:14:00,31.9,30.4,30.03,NE,55,1.0,5.0,94,0.00,,OVC010,0.00,0.00,VWS V14.01,2013-03-06 10:14:00,
2013-03-06 05:15:00,31.9,30.4,30.03,NE,55,0.0,5.0,94,0.00,,OVC010,0.00,0.00,VWS V14.01,2013-03-06 10:15:00,
2013-03-06 05:18:00,31.9,30.4,30.04,NE,34,0.0,5.0,94,0.00,,OVC010,0.00,0.00,VWS V14.01,2013-03-06 10:18:00,
2013-03-06 05:19:00,31.9,30.4,30.04,NE,34,1.0,5.0,94,0.00,,OVC010,0.00,0.00,VWS V14.01,2013-03-06 10:19:00,
2013-03-06 05:20:00,31.9,30.4,30.04,NE,34,1.0,5.0,94,0.00,,OVC010,0.00,0.00,VWS V14.01,2013-03-06 10:20:00,
2013-03-06 05:21:00,31.9,30.4,30.04,NE,40,2.0,5.0,94,0.00,,OVC010,0.00,0.00,VWS V14.01,2013-03-06 10:21:00,
2013-03-06 05:23:00,31.9,30.4,30.04,NE,38,1.0,5.0,94,0.00,,OVC010,0.00,0.00,VWS V14.01,2013-03-06 10:23:00,
2013-03-06 05:24:00,31.9,30.4,30.04,ENE,66,2.0,5.0,94,0.00,,OVC010,0.00,0.00,VWS V14.01,2013-03-06 10:24:00,
2013-03-06 05:25:00,31.9,30.4,30.04,NE,45,5.0,6.0,94,0.00,,OVC010,0.00,0.00,VWS V14.01,2013-03-06 10:25:00,
2013-03-06 05:26:00,31.9,30.4,30.04,ENE,61,1.0,6.0,94,0.00,,OVC010,0.00,0.00,VWS V14.01,2013-03-06 10:26:00,
2013-03-06 05:28:00,31.9,30.4,30.04,NE,56,2.0,6.0,94,0.00,,OVC010,0.00,0.00,VWS V14.01,2013-03-06 10:28:00,
2013-03-06 05:29:00,31.9,30.4,30.04,NE,40,0.0,6.0,94,0.00,,OVC010,0.00,0.00,VWS V14.01,2013-03-06 10:29:00,
2013-03-06 05:30:00,31.8,30.3,30.06,NE,38,2.0,10.0,94,0.00,,FEW080,0.00,0.00,VWS V14.01,2013-03-06 10:30:00,
2013-03-06 05:31:00,31.9,30.4,30.04,NE,41,0.0,6.0,94,0.00,,OVC010,0.00,0.00,VWS V14.01,2013-03-06 10:31:00,
2013-03-06 05:34:00,31.9,30.4,30.05,NNE,17,2.0,3.0,94,0.00,,OVC010,0.00,0.00,VWS V14.01,2013-03-06 10:34:00,
2013-03-06 05:36:00,31.9,30.4,30.05,ENE,78,0.0,4.0,94,0.00,,OVC010,0.00,0.00,VWS V14.01,2013-03-06 10:36:00,
2013-03-06 05:37:00,31.9,30.4,30.05,ENE,78,0.0,4.0,94,0.00,,OVC010,0.00,0.00,VWS V14.01,2013-03-06 10:37:00,
2013-03-06 05:39:00,31.9,30.4,30.05,ENE,73,0.0,6.0,94,0.00,,OVC010,0.00,0.00,VWS V14.01,2013-03-06 10:39:00,
2013-03-06 05:41:00,31.9,30.4,30.05,NE,47,3.0,7.0,94,0.00,,OVC010,0.00,0.00,VWS V14.01,2013-03-06 10:41:00,
2013-03-06 05:43:00,31.9,30.4,30.05,NE,42,2.0,7.0,94,0.00,,OVC010,0.00,0.00,VWS V14.01,2013-03-06 10:43:00,
2013-03-06 05:44:00,31.9,30.4,30.05,NE,42,2.0,7.0,94,0.00,,OVC010,0.00,0.00,VWS V14.01,2013-03-06 10:44:00,
2013-03-06 05:45:00,31.9,30.4,30.05,NE,42,0.0,7.0,94,0.00,,OVC010,0.00,0.00,VWS V14.01,2013-03-06 10:45:00,
2013-03-06 05:46:00,31.9,30.4,30.05,NNE,23,0.0,7.0,94,0.00,,OVC010,0.00,0.00,VWS V14.01,2013-03-06 10:46:00,
2013-03-06 05:48:00,31.9,30.4,30.05,NNE,27,1.0,7.0,94,0.00,,OVC010,0.00,0.00,VWS V14.01,2013-03-06 10:48:00,
2013-03-06 05:49:00,31.9,30.4,30.05,NNE,31,0.0,7.0,94,0.00,,OVC010,0.00,0.00,VWS V14.01,2013-03-06 10:49:00,
2013-03-06 05:50:00,31.9,30.4,30.05,NNE,32,7.0,7.0,94,0.00,,OVC010,0.00,0.00,VWS V14.01,2013-03-06 10:50:00,
2013-03-06 05:51:00,31.9,30.4,30.05,NE,54,0.0,7.0,94,0.00,,OVC010,0.00,0.00,VWS V14.01,2013-03-06 10:51:00,
2013-03-06 05:54:00,31.8,30.3,30.05,NNE,28,0.0,7.0,94,0.00,,OVC010,0.00,0.00,VWS V14.01,2013-03-06 10:54:00,
2013-03-06 05:55:00,31.8,30.3,30.05,NNE,28,1.0,7.0,94,0.00,,OVC010,0.00,0.00,VWS V14.01,2013-03-06 10:55:00,
2013-03-06 05:57:00,31.8,30.3,30.05,NNE,32,1.0,7.0,94,0.00,,OVC010,0.00,0.00,VWS V14.01,2013-03-06 10:57:00,
2013-03-06 05:59:00,31.8,30.3,30.05,NE,45,1.0,7.0,94,0.00,,OVC010,0.00,0.00,VWS V14.01,2013-03-06 10:59:00,
2013-03-06 06:00:00,31.8,30.3,30.05,NE,45,0.0,7.0,94,0.00,,OVC010,0.00,0.00,VWS V14.01,2013-03-06 11:00:00,
2013-03-06 06:02:00,31.8,30.3,30.05,North,11,2.0,3.0,94,0.00,,OVC008,0.00,0.00,VWS V14.01,2013-03-06 11:02:00,
2013-03-06 06:04:00,31.8,30.3,30.05,NE,51,0.0,4.0,94,0.00,,OVC008,0.00,0.00,VWS V14.01,2013-03-06 11:04:00,
2013-03-06 06:05:00,31.8,30.3,30.05,NE,51,0.0,4.0,94,0.00,,OVC008,0.00,0.00,VWS V14.01,2013-03-06 11:05:00,
2013-03-06 06:06:00,31.8,30.3,30.05,East,89,0.0,7.0,94,0.00,,OVC008,0.00,0.00,VWS V14.01,2013-03-06 11:06:00,
2013-03-06 06:07:00,31.8,30.3,30.05,NE,49,0.0,7.0,94,0.00,,OVC008,0.00,0.00,VWS V14.01,2013-03-06 11:07:00,
2013-03-06 06:10:00,31.8,30.3,30.05,ENE,76,1.0,7.0,94,0.00,,OVC008,0.00,0.00,VWS V14.01,2013-03-06 11:10:00,
2013-03-06 06:11:00,31.8,30.3,30.05,ENE,76,0.0,7.0,94,0.00,,OVC008,0.00,0.00,VWS V14.01,2013-03-06 11:11:00,
2013-03-06 06:13:00,31.8,30.3,30.05,East,80,2.0,10.0,94,0.00,,OVC008,0.00,0.00,VWS V14.01,2013-03-06 11:13:00,
2013-03-06 06:15:00,31.8,30.3,30.05,ENE,78,0.0,10.0,94,0.00,,OVC008,0.00,0.00,VWS V14.01,2013-03-06 11:15:00,
2013-03-06 06:16:00,31.8,30.3,30.05,NE,56,2.0,10.0,94,0.00,,OVC008,0.00,0.00,VWS V14.01,2013-03-06 11:16:00,
2013-03-06 06:18:00,31.8,30.3,30.05,NE,49,0.0,10.0,94,0.00,,OVC008,0.00,0.00,VWS V14.01,2013-03-06 11:18:00,
2013-03-06 06:20:00,31.8,30.3,30.05,NE,49,3.0,10.0,94,0.00,,OVC008,0.00,0.00,VWS V14.01,2013-03-06 11:20:00,
2013-03-06 06:22:00,31.8,30.3,30.05,ENE,59,4.0,10.0,94,0.00,,OVC008,0.00,0.00,VWS V14.01,2013-03-06 11:22:00,
2013-03-06 06:23:00,31.8,30.3,30.05,NE,40,2.0,10.0,94,0.00,,OVC008,0.00,0.00,VWS V14.01,2013-03-06 11:23:00,
2013-03-06 06:25:00,31.8,30.3,30.05,NE,35,2.0,10.0,94,0.00,,OVC008,0.00,0.00,VWS V14.01,2013-03-06 11:25:00,
2013-03-06 06:26:00,31.8,30.3,30.05,NE,45,0.0,10.0,94,0.00,,OVC008,0.00,0.00,VWS V14.01,2013-03-06 11:26:00,
2013-03-06 06:27:00,31.8,30.3,30.05,NE,54,0.0,10.0,94,0.00,,OVC008,0.00,0.00,VWS V14.01,2013-03-06 11:27:00,
2013-03-06 06:28:00,31.8,30.3,30.05,NE,44,2.0,10.0,94,0.00,,OVC008,0.00,0.00,VWS V14.01,2013-03-06 11:28:00,
2013-03-06 06:30:00,31.8,30.0,30.09,ENE,68,0.0,7.0,93,0.00,,FEW080,0.00,26.00,VWS V14.01,2013-03-06 11:30:00,
2013-03-06 06:31:00,31.8,30.3,30.06,NE,38,1.0,10.0,94,0.00,,OVC008,0.00,0.00,VWS V14.01,2013-03-06 11:31:00,
2013-03-06 06:32:00,31.8,30.3,30.06,NE,45,0.0,2.0,94,0.00,,OVC008,0.00,0.00,VWS V14.01,2013-03-06 11:32:00,
2013-03-06 06:33:00,31.8,30.3,30.06,East,86,2.0,3.0,94,0.00,,OVC008,0.00,0.00,VWS V14.01,2013-03-06 11:33:00,
2013-03-06 06:36:00,31.8,30.3,30.06,NE,38,2.0,10.0,94,0.00,,OVC008,0.00,0.00,VWS V14.01,2013-03-06 11:36:00,
2013-03-06 06:38:00,31.6,30.1,30.06,East,79,1.0,10.0,94,0.00,,OVC008,0.00,0.00,VWS V14.01,2013-03-06 11:38:00,
2013-03-06 06:41:00,31.6,30.1,30.06,ESE,106,2.0,10.0,94,0.00,,OVC008,0.00,0.00,VWS V14.01,2013-03-06 11:41:00,
2013-03-06 06:42:00,31.6,30.1,30.06,ESE,102,0.0,10.0,94,0.00,,OVC008,0.00,0.00,VWS V14.01,2013-03-06 11:42:00,
2013-03-06 06:43:00,31.6,30.1,30.06,East,100,0.0,10.0,94,0.00,,OVC008,0.00,7.00,VWS V14.01,2013-03-06 11:43:00,
2013-03-06 06:46:00,31.6,30.1,30.06,ENE,58,2.0,10.0,94,0.00,,OVC008,0.00,7.00,VWS V14.01,2013-03-06 11:46:00,
2013-03-06 06:47:00,31.6,30.1,30.06,NNE,14,6.0,10.0,94,0.00,,OVC008,0.00,12.00,VWS V14.01,2013-03-06 11:47:00,
2013-03-06 06:48:00,31.6,30.1,30.06,ENE,58,0.0,10.0,94,0.00,,OVC008,0.00,12.00,VWS V14.01,2013-03-06 11:48:00,
2013-03-06 06:49:00,31.6,30.1,30.06,ENE,58,3.0,10.0,94,0.00,,OVC008,0.00,12.00,VWS V14.01,2013-03-06 11:49:00,
2013-03-06 06:51:00,31.6,30.1,30.06,NE,56,0.0,11.0,94,0.00,,OVC008,0.00,12.00,VWS V14.01,2013-03-06 11:51:00,
2013-03-06 06:52:00,31.6,30.1,30.06,ESE,106,2.0,11.0,94,0.00,,OVC008,0.00,21.00,VWS V14.01,2013-03-06 11:52:00,
2013-03-06 06:53:00,31.6,30.1,30.06,ENE,59,2.0,11.0,94,0.00,,OVC008,0.00,21.00,VWS V14.01,2013-03-06 11:53:00,
2013-03-06 06:54:00,31.6,30.1,30.06,East,82,2.0,11.0,94,0.00,,OVC008,0.00,21.00,VWS V14.01,2013-03-06 11:54:00,
2013-03-06 06:56:00,31.6,30.1,30.06,ENE,78,5.0,11.0,94,0.00,,OVC008,0.00,18.00,VWS V14.01,2013-03-06 11:56:00,
2013-03-06 06:58:00,31.6,30.1,30.06,ENE,68,1.0,11.0,94,0.00,,OVC008,0.00,18.00,VWS V14.01,2013-03-06 11:58:00,
2013-03-06 06:59:00,31.6,30.1,30.06,ESE,109,5.0,11.0,94,0.00,,OVC008,0.00,18.00,VWS V14.01,2013-03-06 11:59:00,
2013-03-06 07:00:00,31.9,29.6,30.09,ESE,112,0.0,11.0,91,0.00,,FEW080,0.00,30.00,VWS V14.01,2013-03-06 12:00:00,
2013-03-06 07:01:00,31.6,30.1,30.07,NE,48,1.0,11.0,94,0.00,,OVC008,0.00,19.00,VWS V14.01,2013-03-06 12:01:00,
2013-03-06 07:03:00,31.6,30.1,30.07,NE,35,0.0,1.0,94,0.00,,OVC012,0.00,19.00,VWS V14.01,2013-03-06 12:03:00,
2013-03-06 07:04:00,31.6,30.1,30.07,ENE,66,1.0,2.0,94,0.00,,OVC012,0.00,23.00,VWS V14.01,2013-03-06 12:04:00,
2013-03-06 07:08:00,31.6,30.1,30.07,NE,56,3.0,7.0,94,0.00,,OVC012,0.00,28.00,VWS V14.01,2013-03-06 12:08:00,
2013-03-06 07:09:00,31.6,30.1,30.07,NE,55,0.0,7.0,94,0.00,,OVC012,0.00,28.00,VWS V14.01,2013-03-06 12:09:00,
2013-03-06 07:13:00,31.8,30.0,30.07,East,85,0.0,7.0,93,0.00,,OVC012,0.00,35.00,VWS V14.01,2013-03-06 12:13:00,
2013-03-06 07:14:00,31.8,30.0,30.07,East,85,0.0,7.0,93,0.00,,OVC012,0.00,35.00,VWS V14.01,2013-03-06 12:14:00,
2013-03-06 07:15:00,31.8,30.0,30.07,NE,52,0.0,7.0,93,0.00,,OVC012,0.00,35.00,VWS V14.01,2013-03-06 12:15:00,
2013-03-06 07:18:00,31.8,30.0,30.08,NE,55,0.0,7.0,93,0.00,,OVC012,0.00,30.00,VWS V14.01,2013-03-06 12:18:00,
2013-03-06 07:19:00,31.8,30.0,30.08,NE,55,0.0,7.0,93,0.00,,OVC012,0.00,30.00,VWS V14.01,2013-03-06 12:19:00,
2013-03-06 07:20:00,31.8,30.0,30.08,NE,44,0.0,7.0,93,0.00,,OVC012,0.00,30.00,VWS V14.01,2013-03-06 12:20:00,
2013-03-06 07:23:00,31.8,30.0,30.08,ENE,62,0.0,7.0,93,0.00,,OVC012,0.00,39.00,VWS V14.01,2013-03-06 12:23:00,
2013-03-06 07:24:00,31.8,30.0,30.08,ENE,62,0.0,7.0,93,0.00,,OVC012,0.00,39.00,VWS V14.01,2013-03-06 12:24:00,
2013-03-06 07:25:00,31.8,30.0,30.08,NE,56,0.0,7.0,93,0.00,,OVC012,0.00,32.00,VWS V14.01,2013-03-06 12:25:00,
2013-03-06 07:29:00,31.8,30.0,30.08,SE,134,3.0,7.0,93,0.00,,OVC012,0.00,26.00,VWS V14.01,2013-03-06 12:29:00,
2013-03-06 07:30:00,31.8,30.0,30.08,ENE,68,3.0,7.0,93,0.00,,OVC012,0.00,26.00,VWS V14.01,2013-03-06 12:30:00,
2013-03-06 07:34:00,31.8,30.0,30.08,NNE,23,0.0,5.0,93,0.00,,OVC012,0.00,30.00,VWS V14.01,2013-03-06 12:34:00,
2013-03-06 07:35:00,31.8,30.0,30.08,NNE,24,0.0,5.0,93,0.00,,OVC012,0.00,30.00,VWS V14.01,2013-03-06 12:35:00,
2013-03-06 07:36:00,31.8,29.8,30.08,ENE,59,0.0,5.0,92,0.00,,OVC012,0.00,30.00,VWS V14.01,2013-03-06 12:36:00,
2013-03-06 07:40:00,31.8,29.8,30.08,East,80,0.0,7.0,92,0.00,,OVC012,0.00,30.00,VWS V14.01,2013-03-06 12:40:00,
2013-03-06 07:41:00,31.8,29.8,30.08,East,80,1.0,7.0,92,0.00,,OVC012,0.00,30.00,VWS V14.01,2013-03-06 12:41:00,
2013-03-06 07:45:00,31.8,29.8,30.08,NE,51,0.0,10.0,92,0.00,,OVC012,0.00,48.00,VWS V14.01,2013-03-06 12:45:00,
2013-03-06 07:46:00,31.8,29.8,30.09,ENE,58,0.0,10.0,92,0.00,,OVC012,0.00,42.00,VWS V14.01,2013-03-06 12:46:00,
2013-03-06 07:50:00,31.8,29.8,30.09,East,97,0.0,10.0,92,0.00,,OVC012,0.00,32.00,VWS V14.01,2013-03-06 12:50:00,
2013-03-06 07:51:00,31.8,29.8,30.09,East,83,2.0,10.0,92,0.00,,OVC012,0.00,32.00,VWS V14.01,2013-03-06 12:51:00,
2013-03-06 07:55:00,31.9,29.6,30.09,ENE,76,2.0,10.0,91,0.00,,OVC012,0.00,37.00,VWS V14.01,2013-03-06 12:55:00,
2013-03-06 07:56:00,31.9,29.6,30.09,ENE,72,0.0,10.0,91,0.00,,OVC012,0.00,37.00,VWS V14.01,2013-03-06 12:56:00,
2013-03-06 08:00:00,31.9,29.6,30.09,ESE,112,0.0,11.0,91,0.00,,OVC012,0.00,30.00,VWS V14.01,2013-03-06 13:00:00,
2013-03-06 08:01:00,31.9,29.6,30.09,ESE,112,0.0,11.0,91,0.00,,OVC012,0.00,30.00,VWS V14.01,2013-03-06 13:01:00,
2013-03-06 08:02:00,31.9,29.6,30.09,ESE,112,0.0,0.0,91,0.00,,OVC012,0.00,30.00,VWS V14.01,2013-03-06 13:02:00,
2013-03-06 08:05:00,31.9,29.6,30.09,South,179,0.0,5.0,91,0.00,,OVC018,0.00,33.00,VWS V14.01,2013-03-06 13:05:00,
2013-03-06 08:06:00,31.9,29.6,30.09,SSE,162,0.0,5.0,91,0.00,,OVC018,0.00,26.00,VWS V14.01,2013-03-06 13:06:00,
2013-03-06 08:07:00,31.9,29.6,30.09,SE,138,0.0,5.0,91,0.00,,OVC018,0.00,26.00,VWS V14.01,2013-03-06 13:07:00,
2013-03-06 08:11:00,31.9,29.3,30.09,SE,145,7.0,11.0,90,0.00,,OVC018,0.00,33.00,VWS V14.01,2013-03-06 13:11:00,
2013-03-06 08:12:00,31.9,29.3,30.09,East,97,1.0,11.0,90,0.00,,OVC018,0.00,33.00,VWS V14.01,2013-03-06 13:12:00,
2013-03-06 08:16:00,31.9,29.3,30.09,ENE,78,0.0,11.0,90,0.00,,OVC018,0.00,42.00,VWS V14.01,2013-03-06 13:16:00,
2013-03-06 08:17:00,31.9,29.3,30.09,NE,49,2.0,11.0,90,0.00,,OVC018,0.00,42.00,VWS V14.01,2013-03-06 13:17:00,
2013-03-06 08:21:00,31.9,29.0,30.09,SSE,162,3.0,11.0,89,0.00,,OVC018,0.00,49.00,VWS V14.01,2013-03-06 13:21:00,
2013-03-06 08:22:00,31.9,29.0,30.09,ENE,59,0.0,11.0,89,0.00,,OVC018,0.00,49.00,VWS V14.01,2013-03-06 13:22:00,
2013-03-06 08:26:00,32.1,29.2,30.09,ESE,104,6.0,11.0,89,0.00,,OVC018,0.00,53.00,VWS V14.01,2013-03-06 13:26:00,
2013-03-06 08:27:00,32.1,29.2,30.09,East,100,2.0,11.0,89,0.00,,OVC018,0.00,53.00,VWS V14.01,2013-03-06 13:27:00,
2013-03-06 08:28:00,32.1,29.2,30.09,ESE,110,3.0,11.0,89,0.00,,OVC018,0.00,46.00,VWS V14.01,2013-03-06 13:28:00,
2013-03-06 08:30:00,33.5,27.1,30.11,ESE,121,1.0,13.0,77,0.01,,FEW080,0.01,83.00,VWS V14.01,2013-03-06 13:30:00,
2013-03-06 08:31:00,32.2,29.0,30.09,ENE,68,2.0,16.0,88,0.00,,OVC018,0.00,62.00,VWS V14.01,2013-03-06 13:31:00,
2013-03-06 08:32:00,32.2,29.0,30.09,ENE,68,1.0,2.0,88,0.00,,OVC018,0.00,70.00,VWS V14.01,2013-03-06 13:32:00,
2013-03-06 08:33:00,32.2,29.0,30.09,ENE,78,2.0,6.0,88,0.00,,OVC018,0.00,70.00,VWS V14.01,2013-03-06 13:33:00,
2013-03-06 08:37:00,32.2,28.8,30.09,East,90,1.0,6.0,87,0.00,,OVC018,0.00,35.00,VWS V14.01,2013-03-06 13:37:00,
2013-03-06 08:38:00,32.2,28.8,30.09,ESE,123,6.0,6.0,87,0.00,,OVC018,0.00,42.00,VWS V14.01,2013-03-06 13:38:00,
2013-03-06 08:42:00,32.4,28.7,30.09,ESE,106,0.0,6.0,86,0.00,,OVC018,0.00,48.00,VWS V14.01,2013-03-06 13:42:00,
2013-03-06 08:43:00,32.4,28.7,30.09,North,3,6.0,6.0,86,0.00,,OVC018,0.00,46.00,VWS V14.01,2013-03-06 13:43:00,
2013-03-06 08:47:00,32.4,28.4,30.10,ESE,114,0.0,6.0,85,0.00,,OVC018,0.00,39.00,VWS V14.01,2013-03-06 13:47:00,
2013-03-06 08:48:00,32.4,28.4,30.10,NE,38,0.0,7.0,85,0.00,,OVC018,0.00,39.00,VWS V14.01,2013-03-06 13:48:00,
2013-03-06 08:52:00,32.5,28.5,30.10,ESE,113,0.0,8.0,85,0.00,,OVC018,0.00,83.00,VWS V14.01,2013-03-06 13:52:00,
2013-03-06 08:53:00,32.7,28.7,30.10,SE,133,6.0,8.0,85,0.00,,OVC018,0.00,83.00,VWS V14.01,2013-03-06 13:53:00,
2013-03-06 08:54:00,32.7,28.7,30.10,SE,137,1.0,8.0,85,0.00,,OVC018,0.00,83.00,VWS V14.01,2013-03-06 13:54:00,
2013-03-06 08:57:00,33.1,29.1,30.10,East,96,0.0,8.0,85,0.00,,OVC018,0.00,195.00,VWS V14.01,2013-03-06 13:57:00,
2013-03-06 08:58:00,33.1,29.1,30.10,East,96,0.0,8.0,85,0.00,,OVC018,0.00,195.00,VWS V14.01,2013-03-06 13:58:00,
2013-03-06 08:59:00,33.2,29.2,30.10,East,82,5.0,8.0,85,0.00,,OVC018,0.00,195.00,VWS V14.01,2013-03-06 13:59:00,
2013-03-06 09:00:00,33.7,26.3,30.10,ENE,62,3.0,16.0,74,0.01,,FEW080,0.01,100.00,VWS V14.01,2013-03-06 14:00:00,
2013-03-06 09:02:00,33.5,28.9,30.10,SE,128,0.0,3.0,83,0.01,,OVC018,0.01,153.00,VWS V14.01,2013-03-06 14:02:00,
2013-03-06 09:03:00,33.5,28.9,30.10,SE,128,0.0,3.0,83,0.01,,OVC018,0.01,153.00,VWS V14.01,2013-03-06 14:03:00,
2013-03-06 09:04:00,33.7,28.8,30.10,NE,42,0.0,3.0,82,0.01,,OVC018,0.01,127.00,VWS V14.01,2013-03-06 14:04:00,
2013-03-06 09:07:00,33.7,28.5,30.10,ENE,65,3.0,7.0,81,0.01,,OVC018,0.01,109.00,VWS V14.01,2013-03-06 14:07:00,
2013-03-06 09:08:00,33.7,28.5,30.10,ENE,66,1.0,7.0,81,0.01,,OVC018,0.01,107.00,VWS V14.01,2013-03-06 14:08:00,
2013-03-06 09:09:00,33.7,28.5,30.10,East,90,1.0,13.0,81,0.01,,OVC018,0.01,107.00,VWS V14.01,2013-03-06 14:09:00,
2013-03-06 09:13:00,33.7,28.2,30.10,NE,54,0.0,13.0,80,0.01,,OVC018,0.01,113.00,VWS V14.01,2013-03-06 14:13:00,
2013-03-06 09:14:00,33.7,28.2,30.10,NE,41,3.0,13.0,80,0.01,,OVC018,0.01,86.00,VWS V14.01,2013-03-06 14:14:00,
2013-03-06 09:18:00,33.7,27.6,30.11,ESE,106,2.0,13.0,78,0.01,,OVC018,0.01,86.00,VWS V14.01,2013-03-06 14:18:00,
2013-03-06 09:19:00,33.7,27.6,30.11,ENE,75,2.0,13.0,78,0.01,,OVC018,0.01,83.00,VWS V14.01,2013-03-06 14:19:00,
2013-03-06 09:23:00,33.7,27.6,30.11,ENE,73,3.0,13.0,78,0.01,,OVC018,0.01,86.00,VWS V14.01,2013-03-06 14:23:00,
2013-03-06 09:25:00,33.5,27.4,30.11,East,83,0.0,13.0,78,0.01,,OVC018,0.01,100.00,VWS V14.01,2013-03-06 14:25:00,
2013-03-06 09:28:00,33.5,27.4,30.11,ENE,76,3.0,13.0,78,0.01,,OVC018,0.01,100.00,VWS V14.01,2013-03-06 14:28:00,
2013-03-06 09:29:00,33.5,27.1,30.11,ENE,64,6.0,13.0,77,0.01,,OVC018,0.01,95.00,VWS V14.01,2013-03-06 14:29:00,
2013-03-06 09:30:00,33.5,27.1,30.11,East,86,2.0,13.0,77,0.01,,OVC018,0.01,86.00,VWS V14.01,2013-03-06 14:30:00,
2013-03-06 09:33:00,33.5,27.1,30.11,NNE,32,5.0,5.0,77,0.01,,OVC018,0.01,93.00,VWS V14.01,2013-03-06 14:33:00,
2013-03-06 09:34:00,33.5,27.1,30.11,SE,130,0.0,8.0,77,0.01,,OVC018,0.01,114.00,VWS V14.01,2013-03-06 14:34:00,
2013-03-06 09:35:00,33.5,27.1,30.11,SE,138,11.0,11.0,77,0.01,,OVC018,0.01,128.00,VWS V14.01,2013-03-06 14:35:00,
2013-03-06 09:36:00,33.5,27.1,30.11,ESE,120,2.0,11.0,77,0.01,,OVC018,0.01,128.00,VWS V14.01,2013-03-06 14:36:00,
2013-03-06 09:38:00,33.5,26.8,30.11,ESE,116,5.0,11.0,76,0.01,,OVC018,0.01,123.00,VWS V14.01,2013-03-06 14:38:00,
2013-03-06 09:40:00,33.5,26.8,30.11,SE,124,7.0,11.0,76,0.01,,OVC018,0.01,118.00,VWS V14.01,2013-03-06 14:40:00,
2013-03-06 09:41:00,33.5,26.8,30.11,East,89,3.0,11.0,76,0.01,,OVC018,0.01,116.00,VWS V14.01,2013-03-06 14:41:00,
2013-03-06 09:44:00,33.5,26.8,30.11,ENE,68,2.0,11.0,76,0.01,,OVC018,0.01,109.00,VWS V14.01,2013-03-06 14:44:00,
2013-03-06 09:46:00,33.5,26.8,30.11,NE,42,3.0,11.0,76,0.01,,OVC018,0.01,100.00,VWS V14.01,2013-03-06 14:46:00,
2013-03-06 09:49:00,33.5,26.8,30.11,SE,124,0.0,11.0,76,0.01,,OVC018,0.01,118.00,VWS V14.01,2013-03-06 14:49:00,
2013-03-06 09:51:00,33.5,26.8,30.11,ESE,120,0.0,11.0,76,0.01,,OVC018,0.01,118.00,VWS V14.01,2013-03-06 14:51:00,
2013-03-06 09:54:00,33.5,26.4,30.11,East,95,2.0,11.0,75,0.01,,OVC018,0.01,144.00,VWS V14.01,2013-03-06 14:54:00,
2013-03-06 09:56:00,33.5,26.4,30.11,ESE,109,0.0,11.0,75,0.01,,OVC018,0.01,144.00,VWS V14.01,2013-03-06 14:56:00,
2013-03-06 09:59:00,33.7,26.6,30.11,East,80,5.0,13.0,75,0.01,,OVC018,0.01,116.00,VWS V14.01,2013-03-06 14:59:00,
2013-03-06 10:00:00,35.3,26.5,30.09,East,79,2.0,7.0,70,0.00,,FEW080,0.01,236.00,VWS V14.01,2013-03-06 15:00:00,
2013-03-06 10:01:00,33.7,26.3,30.10,ENE,61,3.0,16.0,74,0.01,,OVC018,0.01,100.00,VWS V14.01,2013-03-06 15:01:00,
2013-03-06 10:02:00,33.7,26.3,30.10,ENE,68,1.0,3.0,74,0.00,,OVC035,0.01,106.00,VWS V14.01,2013-03-06 15:02:00,
2013-03-06 10:04:00,33.7,26.3,30.10,SSE,147,9.0,11.0,74,0.00,,OVC035,0.01,118.00,VWS V14.01,2013-03-06 15:04:00,
2013-03-06 10:07:00,33.7,26.3,30.10,ENE,64,3.0,11.0,74,0.00,,OVC035,0.01,146.00,VWS V14.01,2013-03-06 15:07:00,
2013-03-06 10:10:00,33.7,26.3,30.10,East,97,8.0,11.0,74,0.00,,OVC035,0.01,137.00,VWS V14.01,2013-03-06 15:10:00,
2013-03-06 10:12:00,33.7,26.3,30.10,ENE,75,6.0,11.0,74,0.00,,OVC035,0.01,135.00,VWS V14.01,2013-03-06 15:12:00,
2013-03-06 10:13:00,33.7,26.3,30.10,East,85,0.0,11.0,74,0.00,,OVC035,0.01,144.00,VWS V14.01,2013-03-06 15:13:00,
2013-03-06 10:15:00,33.7,26.3,30.10,East,82,0.0,11.0,74,0.00,,OVC035,0.01,165.00,VWS V14.01,2013-03-06 15:15:00,
2013-03-06 10:17:00,33.7,26.3,30.10,SE,126,0.0,11.0,74,0.00,,OVC035,0.01,162.00,VWS V14.01,2013-03-06 15:17:00,
2013-03-06 10:18:00,33.8,26.4,30.10,NE,41,6.0,11.0,74,0.00,,OVC035,0.01,144.00,VWS V14.01,2013-03-06 15:18:00,
2013-03-06 10:19:00,33.7,26.3,30.10,East,79,2.0,11.0,74,0.00,,OVC035,0.01,150.00,VWS V14.01,2013-03-06 15:19:00,
2013-03-06 10:21:00,33.7,26.3,30.10,ENE,61,6.0,11.0,74,0.00,,OVC035,0.01,143.00,VWS V14.01,2013-03-06 15:21:00,
2013-03-06 10:22:00,33.8,26.4,30.10,NNE,23,2.0,11.0,74,0.00,,OVC035,0.01,176.00,VWS V14.01,2013-03-06 15:22:00,
2013-03-06 10:23:00,33.8,26.4,30.10,NNE,23,0.0,11.0,74,0.00,,OVC035,0.01,181.00,VWS V14.01,2013-03-06 15:23:00,
2013-03-06 10:24:00,33.8,26.4,30.10,NNE,23,0.0,11.0,74,0.00,,OVC035,0.01,188.00,VWS V14.01,2013-03-06 15:24:00,
2013-03-06 10:26:00,33.8,26.4,30.10,NNE,21,2.0,11.0,74,0.00,,OVC035,0.01,245.00,VWS V14.01,2013-03-06 15:26:00,
2013-03-06 10:28:00,34.0,26.6,30.10,NE,49,0.0,11.0,74,0.00,,OVC035,0.01,382.00,VWS V14.01,2013-03-06 15:28:00,
2013-03-06 10:29:00,34.0,26.6,30.10,NE,52,5.0,11.0,74,0.00,,OVC035,0.01,410.00,VWS V14.01,2013-03-06 15:29:00,
2013-03-06 10:30:00,35.5,26.4,30.09,East,82,5.0,13.0,69,0.00,,FEW080,0.01,172.00,VWS V14.01,2013-03-06 15:30:00,
2013-03-06 10:31:00,34.1,26.7,30.09,ENE,66,3.0,11.0,74,0.00,,OVC035,0.01,442.00,VWS V14.01,2013-03-06 15:31:00,
2013-03-06 10:33:00,34.3,26.9,30.09,East,95,0.0,2.0,74,0.00,,OVC035,0.01,429.00,VWS V14.01,2013-03-06 15:33:00,
2013-03-06 10:34:00,34.4,27.0,30.09,NE,45,2.0,4.0,74,0.00,,OVC035,0.01,440.00,VWS V14.01,2013-03-06 15:34:00,
2013-03-06 10:36:00,34.6,26.9,30.09,ENE,58,2.0,4.0,73,0.00,,OVC035,0.01,345.00,VWS V14.01,2013-03-06 15:36:00,
2013-03-06 10:38:00,34.7,27.0,30.09,NE,56,3.0,5.0,73,0.00,,OVC035,0.01,362.00,VWS V14.01,2013-03-06 15:38:00,
2013-03-06 10:39:00,34.7,27.0,30.09,NE,54,3.0,5.0,73,0.00,,OVC035,0.01,362.00,VWS V14.01,2013-03-06 15:39:00,
2013-03-06 10:41:00,35.0,27.2,30.09,NE,56,2.0,5.0,73,0.00,,OVC035,0.01,208.00,VWS V14.01,2013-03-06 15:41:00,
2013-03-06 10:43:00,35.0,26.6,30.09,East,95,0.0,7.0,71,0.00,,OVC035,0.01,197.00,VWS V14.01,2013-03-06 15:43:00,
2013-03-06 10:44:00,35.0,26.6,30.09,East,99,0.0,7.0,71,0.00,,OVC035,0.01,211.00,VWS V14.01,2013-03-06 15:44:00,
2013-03-06 10:46:00,35.0,26.6,30.09,East,92,0.0,7.0,71,0.00,,OVC035,0.01,218.00,VWS V14.01,2013-03-06 15:46:00,
2013-03-06 10:49:00,35.2,27.1,30.09,SE,128,2.0,7.0,72,0.00,,OVC035,0.01,238.00,VWS V14.01,2013-03-06 15:49:00,
2013-03-06 10:50:00,35.2,27.1,30.09,East,79,6.0,7.0,72,0.00,,OVC035,0.01,238.00,VWS V14.01,2013-03-06 15:50:00,
2013-03-06 10:51:00,35.2,26.8,30.09,ENE,61,1.0,7.0,71,0.00,,OVC035,0.01,225.00,VWS V14.01,2013-03-06 15:51:00,
2013-03-06 10:52:00,35.2,26.8,30.09,NE,56,0.0,7.0,71,0.00,,OVC035,0.01,223.00,VWS V14.01,2013-03-06 15:52:00,
2013-03-06 10:55:00,35.2,26.8,30.09,ENE,72,6.0,7.0,71,0.00,,OVC035,0.01,257.00,VWS V14.01,2013-03-06 15:55:00,
2013-03-06 10:56:00,35.2,26.8,30.09,ESE,106,0.0,7.0,71,0.00,,OVC035,0.01,282.00,VWS V14.01,2013-03-06 15:56:00,
2013-03-06 10:57:00,35.3,26.9,30.09,East,100,0.0,7.0,71,0.00,,OVC035,0.01,308.00,VWS V14.01,2013-03-06 15:57:00,
2013-03-06 11:00:00,35.3,26.5,30.09,East,80,0.0,7.0,70,0.00,,OVC035,0.01,303.00,VWS V14.01,2013-03-06 16:00:00,
2013-03-06 11:01:00,35.3,26.5,30.09,East,85,0.0,7.0,70,0.00,,OVC035,0.01,236.00,VWS V14.01,2013-03-06 16:01:00,
2013-03-06 11:02:00,35.3,26.9,30.09,East,85,0.0,2.0,71,0.00,,OVC026,0.01,216.00,VWS V14.01,2013-03-06 16:02:00,
2013-03-06 11:05:00,35.3,26.9,30.09,East,86,2.0,3.0,71,0.00,,OVC026,0.01,164.00,VWS V14.01,2013-03-06 16:05:00,
2013-03-06 11:06:00,35.3,26.9,30.09,East,85,1.0,3.0,71,0.00,,OVC026,0.01,157.00,VWS V14.01,2013-03-06 16:06:00,
2013-03-06 11:07:00,35.3,26.9,30.09,ENE,59,2.0,4.0,71,0.00,,OVC026,0.01,153.00,VWS V14.01,2013-03-06 16:07:00,
2013-03-06 11:10:00,35.3,26.5,30.09,SSE,161,11.0,11.0,70,0.00,,OVC026,0.01,169.00,VWS V14.01,2013-03-06 16:10:00,
2013-03-06 11:11:00,35.3,26.5,30.09,South,172,5.0,11.0,70,0.00,,OVC026,0.01,169.00,VWS V14.01,2013-03-06 16:11:00,
2013-03-06 11:13:00,35.3,26.2,30.09,SSE,147,0.0,11.0,69,0.00,,OVC026,0.01,183.00,VWS V14.01,2013-03-06 16:13:00,
2013-03-06 11:15:00,35.3,26.2,30.09,East,97,11.0,13.0,69,0.00,,OVC026,0.01,225.00,VWS V14.01,2013-03-06 16:15:00,
2013-03-06 11:16:00,35.3,26.2,30.09,ENE,73,3.0,13.0,69,0.00,,OVC026,0.01,225.00,VWS V14.01,2013-03-06 16:16:00,
2013-03-06 11:17:00,35.3,26.2,30.09,East,100,3.0,13.0,69,0.00,,OVC026,0.01,264.00,VWS V14.01,2013-03-06 16:17:00,
2013-03-06 11:19:00,35.3,26.2,30.09,ESE,102,0.0,13.0,69,0.00,,OVC026,0.01,252.00,VWS V14.01,2013-03-06 16:19:00,
2013-03-06 11:21:00,35.5,26.4,30.09,East,97,0.0,13.0,69,0.00,,OVC026,0.01,278.00,VWS V14.01,2013-03-06 16:21:00,
2013-03-06 11:22:00,35.5,26.0,30.09,SE,130,2.0,13.0,68,0.00,,OVC026,0.01,246.00,VWS V14.01,2013-03-06 16:22:00,
2013-03-06 11:24:00,35.5,26.4,30.09,East,100,0.0,13.0,69,0.00,,OVC026,0.01,192.00,VWS V14.01,2013-03-06 16:24:00,
2013-03-06 11:26:00,35.5,26.4,30.09,ENE,59,0.0,13.0,69,0.00,,OVC026,0.01,183.00,VWS V14.01,2013-03-06 16:26:00,
2013-03-06 11:27:00,35.6,26.5,30.09,ENE,58,0.0,13.0,69,0.00,,OVC026,0.01,174.00,VWS V14.01,2013-03-06 16:27:00,
2013-03-06 11:30:00,35.6,26.8,30.09,ENE,71,0.0,13.0,70,0.00,,OVC026,0.01,164.00,VWS V14.01,2013-03-06 16:30:00,
2013-03-06 11:31:00,35.6,26.5,30.09,ENE,69,1.0,13.0,69,0.00,,OVC026,0.01,167.00,VWS V14.01,2013-03-06 16:31:00,
2013-03-06 11:32:00,35.5,26.4,30.09,East,82,5.0,13.0,69,0.00,,OVC026,0.01,172.00,VWS V14.01,2013-03-06 16:32:00,
2013-03-06 11:35:00,35.5,26.0,30.09,NE,49,2.0,10.0,68,0.00,,OVC026,0.01,185.00,VWS V14.01,2013-03-06 16:35:00,
2013-03-06 11:36:00,35.5,26.4,30.09,NE,56,0.0,10.0,69,0.00,,OVC026,0.01,176.00,VWS V14.01,2013-03-06 16:36:00,
2013-03-06 11:37:00,35.3,26.2,30.09,ESE,123,7.0,10.0,69,0.00,,OVC026,0.01,176.00,VWS V14.01,2013-03-06 16:37:00,
2013-03-06 11:40:00,35.3,26.2,30.09,SE,130,0.0,10.0,69,0.00,,OVC026,0.01,144.00,VWS V14.01,2013-03-06 16:40:00,
2013-03-06 11:41:00,35.3,26.2,30.09,ESE,106,0.0,10.0,69,0.00,,OVC026,0.01,139.00,VWS V14.01,2013-03-06 16:41:00,
2013-03-06 11:42:00,35.3,26.2,30.09,East,97,6.0,10.0,69,0.00,,OVC026,0.01,123.00,VWS V14.01,2013-03-06 16:42:00,
2013-03-06 11:45:00,35.2,26.4,30.09,ENE,75,0.0,10.0,70,0.00,,OVC026,0.01,104.00,VWS V14.01,2013-03-06 16:45:00,
2013-03-06 11:47:00,35.2,26.4,30.09,East,90,0.0,10.0,70,0.00,,OVC026,0.01,123.00,VWS V14.01,2013-03-06 16:47:00,
2013-03-06 11:50:00,35.0,26.6,30.09,East,80,2.0,10.0,71,0.00,,OVC026,0.01,128.00,VWS V14.01,2013-03-06 16:50:00,
2013-03-06 11:52:00,34.9,26.5,30.09,East,96,2.0,10.0,71,0.00,,OVC026,0.01,106.00,VWS V14.01,2013-03-06 16:52:00,
2013-03-06 11:53:00,34.9,26.8,30.09,NE,37,2.0,10.0,72,0.00,,OVC026,0.01,104.00,VWS V14.01,2013-03-06 16:53:00,
2013-03-06 11:55:00,34.7,27.0,30.09,East,96,0.0,10.0,73,0.00,,OVC026,0.01,121.00,VWS V14.01,2013-03-06 16:55:00,
2013-03-06 11:57:00,34.6,27.2,30.09,ENE,68,0.0,11.0,74,0.00,,OVC026,0.01,102.00,VWS V14.01,2013-03-06 16:57:00,
2013-03-06 11:58:00,34.6,27.2,30.09,ENE,68,0.0,11.0,74,0.00,,OVC026,0.01,102.00,VWS V14.01,2013-03-06 16:58:00,
2013-03-06 12:00:00,33.2,28.3,30.07,ENE,58,1.0,10.0,82,0.00,,FEW080,0.01,143.00,VWS V14.01,2013-03-06 17:00:00,
2013-03-06 12:01:00,34.4,27.3,30.09,NE,55,3.0,11.0,75,0.00,,OVC026,0.01,116.00,VWS V14.01,2013-03-06 17:01:00,
2013-03-06 12:02:00,34.3,27.5,30.09,NE,55,0.0,2.0,76,0.00,,OVC044,0.01,102.00,VWS V14.01,2013-03-06 17:02:00,
2013-03-06 12:03:00,34.3,27.9,30.09,NE,55,0.0,2.0,77,0.00,,OVC044,0.01,102.00,VWS V14.01,2013-03-06 17:03:00,
2013-03-06 12:06:00,34.1,28.0,30.09,ENE,75,0.0,3.0,78,0.00,,OVC044,0.01,127.00,VWS V14.01,2013-03-06 17:06:00,
2013-03-06 12:08:00,34.0,27.9,30.09,NE,38,0.0,4.0,78,0.00,,OVC044,0.01,118.00,VWS V14.01,2013-03-06 17:08:00,
2013-03-06 12:11:00,33.8,28.0,30.09,SE,130,4.0,6.0,79,0.00,,OVC044,0.01,132.00,VWS V14.01,2013-03-06 17:11:00,
2013-03-06 12:13:00,33.8,28.0,30.09,East,97,0.0,6.0,79,0.00,,OVC044,0.01,132.00,VWS V14.01,2013-03-06 17:13:00,
2013-03-06 12:14:00,33.7,27.9,30.09,East,99,0.0,6.0,79,0.00,,OVC044,0.01,143.00,VWS V14.01,2013-03-06 17:14:00,
2013-03-06 12:16:00,33.7,28.2,30.09,East,93,0.0,6.0,80,0.00,,OVC044,0.01,123.00,VWS V14.01,2013-03-06 17:16:00,
2013-03-06 12:18:00,33.7,28.2,30.09,SSW,208,2.0,6.0,80,0.00,,OVC044,0.01,104.00,VWS V14.01,2013-03-06 17:18:00,
2013-03-06 12:19:00,33.5,28.0,30.09,NE,56,0.0,7.0,80,0.00,,OVC044,0.01,113.00,VWS V14.01,2013-03-06 17:19:00,
2013-03-06 12:21:00,33.5,28.0,30.09,ENE,62,0.0,7.0,80,0.00,,OVC044,0.01,120.00,VWS V14.01,2013-03-06 17:21:00,
2013-03-06 12:23:00,33.5,28.0,30.09,East,95,0.0,7.0,80,0.00,,OVC044,0.01,113.00,VWS V14.01,2013-03-06 17:23:00,
2013-03-06 12:24:00,33.5,28.0,30.09,East,82,0.0,7.0,80,0.00,,OVC044,0.01,109.00,VWS V14.01,2013-03-06 17:24:00,
2013-03-06 12:25:00,33.4,28.2,30.09,East,99,0.0,7.0,81,0.00,,OVC044,0.01,113.00,VWS V14.01,2013-03-06 17:25:00,
2013-03-06 12:26:00,33.4,28.2,30.09,East,92,0.0,7.0,81,0.00,,OVC044,0.01,132.00,VWS V14.01,2013-03-06 17:26:00,
2013-03-06 12:28:00,33.4,28.2,30.09,East,88,5.0,7.0,81,0.00,,OVC044,0.01,139.00,VWS V14.01,2013-03-06 17:28:00,
2013-03-06 12:29:00,33.4,28.2,30.09,East,85,0.0,7.0,81,0.00,,OVC044,0.01,162.00,VWS V14.01,2013-03-06 17:29:00,
2013-03-06 12:30:00,33.4,28.2,30.09,East,88,0.0,7.0,81,0.00,,OVC044,0.01,162.00,VWS V14.01,2013-03-06 17:30:00,
2013-03-06 12:31:00,33.4,28.2,30.08,ENE,78,0.0,7.0,81,0.00,,OVC044,0.01,146.00,VWS V14.01,2013-03-06 17:31:00,
2013-03-06 12:34:00,33.4,28.2,30.08,East,79,0.0,3.0,81,0.00,,OVC044,0.01,174.00,VWS V14.01,2013-03-06 17:34:00,
2013-03-06 12:35:00,33.4,28.5,30.08,East,79,0.0,3.0,82,0.00,,OVC044,0.01,174.00,VWS V14.01,2013-03-06 17:35:00,
2013-03-06 12:37:00,33.2,28.3,30.08,SE,130,0.0,5.0,82,0.00,,OVC044,0.01,160.00,VWS V14.01,2013-03-06 17:37:00,
2013-03-06 12:39:00,33.2,28.3,30.08,NE,47,0.0,6.0,82,0.00,,OVC044,0.01,123.00,VWS V14.01,2013-03-06 17:39:00,
2013-03-06 12:41:00,33.2,28.3,30.08,East,100,0.0,10.0,82,0.00,,OVC044,0.01,153.00,VWS V14.01,2013-03-06 17:41:00,
2013-03-06 12:42:00,33.2,28.3,30.08,ENE,73,1.0,10.0,82,0.00,,OVC044,0.01,148.00,VWS V14.01,2013-03-06 17:42:00,
2013-03-06 12:44:00,33.1,28.5,30.08,ENE,65,0.0,10.0,83,0.00,,OVC044,0.01,165.00,VWS V14.01,2013-03-06 17:44:00,
2013-03-06 12:46:00,33.1,28.5,30.07,NE,35,0.0,10.0,83,0.00,,OVC044,0.01,158.00,VWS V14.01,2013-03-06 17:46:00,
2013-03-06 12:48:00,33.1,28.5,30.07,ENE,69,2.0,10.0,83,0.00,,OVC044,0.01,148.00,VWS V14.01,2013-03-06 17:48:00,
2013-03-06 12:49:00,33.1,28.5,30.07,ENE,65,1.0,10.0,83,0.00,,OVC044,0.01,176.00,VWS V14.01,2013-03-06 17:49:00,
2013-03-06 12:50:00,33.1,28.5,30.07,ENE,76,0.0,10.0,83,0.00,,OVC044,0.01,165.00,VWS V14.01,2013-03-06 17:50:00,
2013-03-06 12:52:00,33.1,28.5,30.07,East,100,0.0,10.0,83,0.00,,OVC044,0.01,174.00,VWS V14.01,2013-03-06 17:52:00,
2013-03-06 12:53:00,33.1,28.5,30.07,ENE,73,0.0,10.0,83,0.00,,OVC044,0.01,165.00,VWS V14.01,2013-03-06 17:53:00,
2013-03-06 12:54:00,33.2,28.6,30.07,NNE,24,7.0,10.0,83,0.00,,OVC044,0.01,181.00,VWS V14.01,2013-03-06 17:54:00,
2013-03-06 12:56:00,33.2,28.6,30.07,NE,45,1.0,10.0,83,0.00,,OVC044,0.01,202.00,VWS V14.01,2013-03-06 17:56:00,
2013-03-06 12:57:00,33.2,28.6,30.07,ENE,66,2.0,10.0,83,0.00,,OVC044,0.01,195.00,VWS V14.01,2013-03-06 17:57:00,
2013-03-06 12:58:00,33.2,28.6,30.07,ENE,66,1.0,10.0,83,0.00,,OVC044,0.01,165.00,VWS V14.01,2013-03-06 17:58:00,
2013-03-06 12:59:00,33.2,28.3,30.07,NE,42,1.0,10.0,82,0.00,,OVC044,0.01,137.00,VWS V14.01,2013-03-06 17:59:00,
2013-03-06 13:00:00,34.1,28.0,30.08,ENE,64,3.0,12.0,78,0.01,,FEW080,0.02,190.00,VWS V14.01,2013-03-06 18:00:00,
2013-03-06 13:01:00,33.2,28.3,30.07,ENE,62,0.0,10.0,82,0.00,,OVC044,0.01,132.00,VWS V14.01,2013-03-06 18:01:00,
2013-03-06 13:02:00,33.2,28.3,30.07,NE,55,2.0,2.0,82,0.00,,OVC044,0.01,143.00,VWS V14.01,2013-03-06 18:02:00,
2013-03-06 13:03:00,33.2,28.3,30.07,NE,56,0.0,6.0,82,0.00,,OVC036,0.01,143.00,VWS V14.01,2013-03-06 18:03:00,
2013-03-06 13:04:00,33.4,28.5,30.07,NE,55,0.0,6.0,82,0.00,,OVC036,0.01,153.00,VWS V14.01,2013-03-06 18:04:00,
2013-03-06 13:07:00,33.4,28.2,30.07,NNE,32,1.0,6.0,81,0.00,,OVC036,0.01,130.00,VWS V14.01,2013-03-06 18:07:00,
2013-03-06 13:08:00,33.4,28.2,30.07,NE,47,0.0,6.0,81,0.00,,OVC036,0.01,123.00,VWS V14.01,2013-03-06 18:08:00,
2013-03-06 13:09:00,33.4,28.2,30.07,NNE,18,0.0,6.0,81,0.00,,OVC036,0.01,151.00,VWS V14.01,2013-03-06 18:09:00,
2013-03-06 13:12:00,33.4,28.2,30.07,ENE,72,3.0,10.0,81,0.00,,OVC036,0.01,135.00,VWS V14.01,2013-03-06 18:12:00,
2013-03-06 13:13:00,33.5,28.0,30.07,NE,56,0.0,10.0,80,0.00,,OVC036,0.01,150.00,VWS V14.01,2013-03-06 18:13:00,
2013-03-06 13:14:00,33.5,28.0,30.07,ENE,73,0.0,10.0,80,0.00,,OVC036,0.01,128.00,VWS V14.01,2013-03-06 18:14:00,
2013-03-06 13:17:00,33.5,28.0,30.08,NE,51,0.0,10.0,80,0.00,,OVC036,0.01,109.00,VWS V14.01,2013-03-06 18:17:00,
2013-03-06 13:18:00,33.5,28.0,30.08,ENE,61,1.0,10.0,80,0.00,,OVC036,0.01,99.00,VWS V14.01,2013-03-06 18:18:00,
2013-03-06 13:19:00,33.5,28.0,30.08,ENE,61,0.0,10.0,80,0.00,,OVC036,0.01,88.00,VWS V14.01,2013-03-06 18:19:00,
2013-03-06 13:20:00,33.7,28.2,30.08,ENE,71,2.0,10.0,80,0.00,,OVC036,0.01,88.00,VWS V14.01,2013-03-06 18:20:00,
2013-03-06 13:22:00,33.7,28.2,30.08,ENE,76,6.0,10.0,80,0.00,,OVC036,0.01,104.00,VWS V14.01,2013-03-06 18:22:00,
2013-03-06 13:24:00,33.7,28.2,30.08,ENE,64,0.0,10.0,80,0.00,,OVC036,0.01,113.00,VWS V14.01,2013-03-06 18:24:00,
2013-03-06 13:25:00,33.7,28.2,30.08,NE,54,0.0,10.0,80,0.00,,OVC036,0.01,121.00,VWS V14.01,2013-03-06 18:25:00,
2013-03-06 13:28:00,33.7,28.2,30.08,NE,45,3.0,10.0,80,0.00,,OVC036,0.01,104.00,VWS V14.01,2013-03-06 18:28:00,
2013-03-06 13:29:00,33.7,28.2,30.08,NE,51,2.0,10.0,80,0.00,,OVC036,0.01,102.00,VWS V14.01,2013-03-06 18:29:00,
2013-03-06 13:30:00,34.0,26.9,30.08,NNE,14,2.0,18.0,75,0.01,,FEW080,0.02,62.00,VWS V14.01,2013-03-06 18:30:00,
2013-03-06 13:31:00,33.7,28.2,30.07,ESE,120,8.0,10.0,80,0.00,,OVC036,0.01,109.00,VWS V14.01,2013-03-06 18:31:00,
2013-03-06 13:33:00,33.5,28.3,30.07,NE,54,0.0,12.0,81,0.01,,OVC036,0.02,143.00,VWS V14.01,2013-03-06 18:33:00,
2013-03-06 13:34:00,33.5,28.3,30.07,ENE,64,6.0,12.0,81,0.01,,OVC036,0.02,160.00,VWS V14.01,2013-03-06 18:34:00,
2013-03-06 13:37:00,33.5,28.3,30.07,ESE,104,2.0,12.0,81,0.01,,OVC036,0.02,155.00,VWS V14.01,2013-03-06 18:37:00,
2013-03-06 13:39:00,33.5,28.0,30.07,NE,51,2.0,12.0,80,0.01,,OVC036,0.02,146.00,VWS V14.01,2013-03-06 18:39:00,
2013-03-06 13:42:00,33.5,28.0,30.07,SE,138,8.0,12.0,80,0.01,,OVC036,0.02,183.00,VWS V14.01,2013-03-06 18:42:00,
2013-03-06 13:44:00,33.5,27.7,30.07,ESE,119,2.0,12.0,79,0.01,,OVC036,0.02,209.00,VWS V14.01,2013-03-06 18:44:00,
2013-03-06 13:48:00,33.7,27.9,30.07,NE,44,3.0,12.0,79,0.01,,OVC036,0.02,165.00,VWS V14.01,2013-03-06 18:48:00,
2013-03-06 13:49:00,33.8,28.0,30.07,SE,124,5.0,12.0,79,0.01,,OVC036,0.02,134.00,VWS V14.01,2013-03-06 18:49:00,
2013-03-06 13:53:00,33.8,28.0,30.07,NE,52,2.0,12.0,79,0.01,,OVC036,0.02,165.00,VWS V14.01,2013-03-06 18:53:00,
2013-03-06 13:54:00,34.0,27.9,30.07,ENE,61,2.0,12.0,78,0.01,,OVC036,0.02,209.00,VWS V14.01,2013-03-06 18:54:00,
2013-03-06 13:55:00,34.0,27.9,30.07,ENE,61,1.0,12.0,78,0.01,,OVC036,0.02,209.00,VWS V14.01,2013-03-06 18:55:00,
2013-03-06 13:58:00,34.1,28.0,30.07,East,99,2.0,12.0,78,0.01,,OVC036,0.02,176.00,VWS V14.01,2013-03-06 18:58:00,
2013-03-06 13:59:00,34.1,28.0,30.07,East,86,7.0,12.0,78,0.01,,OVC036,0.02,181.00,VWS V14.01,2013-03-06 18:59:00,
2013-03-06 14:00:00,34.1,28.0,30.07,ESE,107,8.0,12.0,78,0.01,,OVC036,0.02,181.00,VWS V14.01,2013-03-06 19:00:00,
2013-03-06 14:03:00,34.3,27.9,30.08,NE,41,3.0,18.0,77,0.01,,OVC036,0.02,225.00,VWS V14.01,2013-03-06 19:03:00,
2013-03-06 14:05:00,34.3,27.9,30.08,ENE,76,1.0,18.0,77,0.01,,OVC036,0.02,169.00,VWS V14.01,2013-03-06 19:05:00,
2013-03-06 14:09:00,34.3,27.5,30.08,NNE,24,2.0,18.0,76,0.01,,OVC036,0.02,97.00,VWS V14.01,2013-03-06 19:09:00,
2013-03-06 14:10:00,34.3,27.5,30.08,ENE,62,5.0,18.0,76,0.01,,OVC036,0.02,90.00,VWS V14.01,2013-03-06 19:10:00,
2013-03-06 14:11:00,34.3,27.5,30.08,ENE,65,3.0,18.0,76,0.01,,OVC036,0.02,81.00,VWS V14.01,2013-03-06 19:11:00,
2013-03-06 14:14:00,34.3,27.2,30.08,East,96,7.0,18.0,75,0.01,,OVC036,0.02,91.00,VWS V14.01,2013-03-06 19:14:00,
2013-03-06 14:15:00,34.1,27.0,30.08,NE,54,6.0,18.0,75,0.01,,OVC036,0.02,91.00,VWS V14.01,2013-03-06 19:15:00,
2013-03-06 14:17:00,34.1,27.0,30.07,ENE,72,2.0,18.0,75,0.01,,OVC036,0.02,90.00,VWS V14.01,2013-03-06 19:17:00,
2013-03-06 14:20:00,34.1,26.7,30.07,East,96,2.0,18.0,74,0.01,,OVC036,0.02,77.00,VWS V14.01,2013-03-06 19:20:00,
2013-03-06 14:21:00,34.1,26.7,30.07,NE,51,0.0,18.0,74,0.01,,OVC036,0.02,79.00,VWS V14.01,2013-03-06 19:21:00,
2013-03-06 14:22:00,34.1,26.7,30.07,NNE,24,3.0,18.0,74,0.01,,OVC036,0.02,79.00,VWS V14.01,2013-03-06 19:22:00,
2013-03-06 14:25:00,34.0,26.6,30.07,East,95,10.0,18.0,74,0.01,,OVC036,0.02,83.00,VWS V14.01,2013-03-06 19:25:00,
2013-03-06 14:26:00,34.0,26.6,30.07,SE,137,2.0,18.0,74,0.01,,OVC036,0.02,81.00,VWS V14.01,2013-03-06 19:26:00,
2013-03-06 14:27:00,34.0,26.6,30.07,SE,138,2.0,18.0,74,0.01,,OVC036,0.02,65.00,VWS V14.01,2013-03-06 19:27:00,
2013-03-06 14:30:00,32.9,26.8,30.08,East,93,1.0,14.0,78,0.00,,FEW080,0.02,56.00,VWS V14.01,2013-03-06 19:30:00,
2013-03-06 14:31:00,34.0,26.9,30.07,ESE,114,1.0,18.0,75,0.01,,OVC036,0.02,67.00,VWS V14.01,2013-03-06 19:31:00,
2013-03-06 14:32:00,34.0,26.9,30.08,East,79,5.0,8.0,75,0.01,,OVC036,0.02,56.00,VWS V14.01,2013-03-06 19:32:00,
2013-03-06 14:36:00,34.0,26.9,30.08,East,97,4.0,8.0,75,0.01,,OVC036,0.02,49.00,VWS V14.01,2013-03-06 19:36:00,
2013-03-06 14:37:00,34.0,26.9,30.08,ESE,121,3.0,10.0,75,0.01,,OVC036,0.02,55.00,VWS V14.01,2013-03-06 19:37:00,
2013-03-06 14:38:00,34.0,26.9,30.08,ENE,76,11.0,11.0,75,0.01,,OVC036,0.02,55.00,VWS V14.01,2013-03-06 19:38:00,
2013-03-06 14:41:00,33.8,27.0,30.08,NNE,17,1.0,16.0,76,0.01,,OVC036,0.02,81.00,VWS V14.01,2013-03-06 19:41:00,
2013-03-06 14:42:00,33.8,27.0,30.08,ESE,102,16.0,17.0,76,0.01,,OVC036,0.02,88.00,VWS V14.01,2013-03-06 19:42:00,
2013-03-06 14:43:00,33.8,27.0,30.08,ENE,71,2.0,17.0,76,0.01,,OVC036,0.02,93.00,VWS V14.01,2013-03-06 19:43:00,
2013-03-06 14:47:00,33.8,27.0,30.08,NE,55,2.0,17.0,76,0.01,,OVC036,0.02,114.00,VWS V14.01,2013-03-06 19:47:00,
2013-03-06 14:48:00,33.8,27.0,30.08,ESE,103,6.0,17.0,76,0.01,,OVC036,0.02,148.00,VWS V14.01,2013-03-06 19:48:00,
2013-03-06 14:49:00,33.8,26.7,30.08,WNW,289,4.0,17.0,75,0.01,,OVC036,0.02,162.00,VWS V14.01,2013-03-06 19:49:00,
2013-03-06 14:52:00,33.8,26.4,30.08,ENE,68,0.0,17.0,74,0.01,,OVC036,0.02,181.00,VWS V14.01,2013-03-06 19:52:00,
2013-03-06 14:53:00,33.8,26.4,30.08,ENE,68,1.0,17.0,74,0.01,,OVC036,0.02,185.00,VWS V14.01,2013-03-06 19:53:00,
2013-03-06 14:54:00,33.8,26.7,30.08,ENE,68,0.0,17.0,75,0.01,,OVC036,0.02,174.00,VWS V14.01,2013-03-06 19:54:00,
2013-03-06 14:57:00,34.0,27.6,30.08,ENE,73,2.0,17.0,77,0.01,,OVC036,0.02,95.00,VWS V14.01,2013-03-06 19:57:00,
2013-03-06 14:58:00,34.0,27.6,30.08,ENE,73,0.0,17.0,77,0.01,,OVC036,0.02,91.00,VWS V14.01,2013-03-06 19:58:00,
2013-03-06 14:59:00,34.0,27.6,30.08,ENE,65,0.0,17.0,77,0.01,,OVC036,0.02,86.00,VWS V14.01,2013-03-06 19:59:00,
2013-03-06 15:00:00,32.9,26.2,30.08,East,80,2.0,14.0,76,0.00,,FEW080,0.02,62.00,VWS V14.01,2013-03-06 20:00:00,
2013-03-06 15:02:00,34.0,27.6,30.08,NE,52,0.0,2.0,77,0.00,,OVC036,0.02,56.00,VWS V14.01,2013-03-06 20:02:00,
2013-03-06 15:03:00,34.0,27.6,30.08,NNE,16,2.0,2.0,77,0.00,,OVC036,0.02,51.00,VWS V14.01,2013-03-06 20:03:00,
2013-03-06 15:04:00,34.0,27.6,30.08,NE,42,0.0,4.0,77,0.00,,OVC036,0.02,49.00,VWS V14.01,2013-03-06 20:04:00,
2013-03-06 15:08:00,33.8,27.4,30.08,NE,56,0.0,4.0,77,0.00,,OVC036,0.02,40.00,VWS V14.01,2013-03-06 20:08:00,
2013-03-06 15:09:00,33.8,27.4,30.08,NE,56,2.0,4.0,77,0.00,,OVC036,0.02,40.00,VWS V14.01,2013-03-06 20:09:00,
2013-03-06 15:10:00,33.8,27.7,30.08,NE,41,0.0,5.0,78,0.00,,OVC036,0.02,42.00,VWS V14.01,2013-03-06 20:10:00,
2013-03-06 15:13:00,33.7,27.6,30.08,ENE,58,0.0,8.0,78,0.00,,OVC036,0.02,37.00,VWS V14.01,2013-03-06 20:13:00,
2013-03-06 15:14:00,33.7,27.6,30.08,ENE,62,1.0,8.0,78,0.00,,OVC036,0.02,40.00,VWS V14.01,2013-03-06 20:14:00,
2013-03-06 15:15:00,33.7,27.6,30.08,ENE,72,0.0,8.0,78,0.00,,OVC036,0.02,39.00,VWS V14.01,2013-03-06 20:15:00,
2013-03-06 15:18:00,33.5,27.4,30.08,East,95,12.0,14.0,78,0.00,,OVC036,0.02,39.00,VWS V14.01,2013-03-06 20:18:00,
2013-03-06 15:19:00,33.4,27.0,30.08,South,172,2.0,14.0,77,0.00,,OVC036,0.02,37.00,VWS V14.01,2013-03-06 20:19:00,
2013-03-06 15:20:00,33.4,27.0,30.08,NNE,30,6.0,14.0,77,0.00,,OVC036,0.02,37.00,VWS V14.01,2013-03-06 20:20:00,
2013-03-06 15:23:00,33.1,27.0,30.08,East,97,2.0,14.0,78,0.00,,OVC036,0.02,37.00,VWS V14.01,2013-03-06 20:23:00,
2013-03-06 15:24:00,33.1,27.0,30.08,ESE,123,2.0,14.0,78,0.00,,OVC036,0.02,113.00,VWS V14.01,2013-03-06 20:24:00,
2013-03-06 15:25:00,33.1,27.0,30.08,East,79,1.0,14.0,78,0.00,,OVC036,0.02,100.00,VWS V14.01,2013-03-06 20:25:00,
2013-03-06 15:28:00,32.9,26.8,30.08,East,79,1.0,14.0,78,0.00,,OVC036,0.02,70.00,VWS V14.01,2013-03-06 20:28:00,
2013-03-06 15:29:00,32.9,26.8,30.08,ENE,58,0.0,14.0,78,0.00,,OVC036,0.02,70.00,VWS V14.01,2013-03-06 20:29:00,
2013-03-06 15:30:00,32.9,26.8,30.08,SSE,158,6.0,14.0,78,0.00,,OVC036,0.02,67.00,VWS V14.01,2013-03-06 20:30:00,
2013-03-06 15:33:00,32.9,26.8,30.08,East,89,0.0,6.0,78,0.00,,OVC036,0.02,55.00,VWS V14.01,2013-03-06 20:33:00,
2013-03-06 15:35:00,32.9,26.8,30.08,East,85,5.0,6.0,78,0.00,,OVC036,0.02,58.00,VWS V14.01,2013-03-06 20:35:00,
2013-03-06 15:36:00,32.9,26.8,30.08,ENE,69,0.0,7.0,78,0.00,,OVC036,0.02,58.00,VWS V14.01,2013-03-06 20:36:00,
2013-03-06 15:38:00,32.8,26.7,30.08,East,85,0.0,7.0,78,0.00,,OVC036,0.02,55.00,VWS V14.01,2013-03-06 20:38:00,
2013-03-06 15:40:00,32.8,26.7,30.08,ENE,78,7.0,7.0,78,0.00,,OVC036,0.02,51.00,VWS V14.01,2013-03-06 20:40:00,
2013-03-06 15:41:00,32.8,26.7,30.08,East,92,10.0,10.0,78,0.00,,OVC036,0.02,56.00,VWS V14.01,2013-03-06 20:41:00,
2013-03-06 15:42:00,32.8,26.4,30.08,ESE,113,2.0,10.0,77,0.00,,OVC036,0.02,60.00,VWS V14.01,2013-03-06 20:42:00,
2013-03-06 15:43:00,32.8,26.4,30.08,SE,124,0.0,10.0,77,0.00,,OVC036,0.02,51.00,VWS V14.01,2013-03-06 20:43:00,
2013-03-06 15:45:00,32.8,26.4,30.08,SE,131,5.0,10.0,77,0.00,,OVC036,0.02,69.00,VWS V14.01,2013-03-06 20:45:00,
2013-03-06 15:46:00,32.8,26.4,30.09,East,88,2.0,10.0,77,0.00,,OVC036,0.02,69.00,VWS V14.01,2013-03-06 20:46:00,
2013-03-06 15:47:00,32.9,26.5,30.09,ENE,75,0.0,10.0,77,0.00,,OVC036,0.02,76.00,VWS V14.01,2013-03-06 20:47:00,
2013-03-06 15:49:00,32.9,26.5,30.09,South,179,8.0,10.0,77,0.00,,OVC036,0.02,76.00,VWS V14.01,2013-03-06 20:49:00,
2013-03-06 15:51:00,32.9,26.5,30.09,SE,141,3.0,10.0,77,0.00,,OVC036,0.02,88.00,VWS V14.01,2013-03-06 20:51:00,
2013-03-06 15:52:00,32.9,26.5,30.09,East,100,5.0,10.0,77,0.00,,OVC036,0.02,84.00,VWS V14.01,2013-03-06 20:52:00,
2013-03-06 15:54:00,32.9,26.5,30.09,East,97,0.0,10.0,77,0.00,,OVC036,0.02,84.00,VWS V14.01,2013-03-06 20:54:00,
2013-03-06 15:56:00,32.9,26.5,30.09,East,93,0.0,10.0,77,0.00,,OVC036,0.02,81.00,VWS V14.01,2013-03-06 20:56:00,
2013-03-06 15:57:00,32.9,26.5,30.09,ENE,65,4.0,10.0,77,0.00,,OVC036,0.02,76.00,VWS V14.01,2013-03-06 20:57:00,
2013-03-06 15:59:00,32.9,26.5,30.09,ENE,76,0.0,10.0,77,0.00,,OVC036,0.02,67.00,VWS V14.01,2013-03-06 20:59:00,
2013-03-06 16:00:00,32.1,26.0,30.09,ENE,76,8.0,12.0,78,0.00,,FEW080,0.02,33.00,VWS V14.01,2013-03-06 21:00:00,
2013-03-06 16:01:00,32.9,26.2,30.08,East,80,2.0,14.0,76,0.00,,OVC036,0.02,62.00,VWS V14.01,2013-03-06 21:01:00,
2013-03-06 16:02:00,32.9,25.9,30.08,ESE,110,7.0,7.0,75,0.00,,BKN041,0.02,67.00,VWS V14.01,2013-03-06 21:02:00,
2013-03-06 16:03:00,32.9,25.9,30.08,East,93,2.0,7.0,75,0.00,,BKN041,0.02,67.00,VWS V14.01,2013-03-06 21:03:00,
2013-03-06 16:04:00,32.9,25.9,30.08,SE,137,12.0,12.0,75,0.00,,BKN041,0.02,81.00,VWS V14.01,2013-03-06 21:04:00,
2013-03-06 16:07:00,32.9,25.9,30.08,ENE,64,1.0,12.0,75,0.00,,BKN041,0.02,91.00,VWS V14.01,2013-03-06 21:07:00,
2013-03-06 16:08:00,32.9,25.9,30.08,East,95,3.0,12.0,75,0.00,,BKN041,0.02,74.00,VWS V14.01,2013-03-06 21:08:00,
2013-03-06 16:10:00,32.9,25.9,30.08,SSE,152,16.0,16.0,75,0.00,,BKN041,0.02,70.00,VWS V14.01,2013-03-06 21:10:00,
2013-03-06 16:12:00,32.9,26.2,30.08,SE,130,2.0,16.0,76,0.00,,BKN041,0.02,69.00,VWS V14.01,2013-03-06 21:12:00,
2013-03-06 16:13:00,32.9,26.2,30.08,SE,124,0.0,16.0,76,0.00,,BKN041,0.02,65.00,VWS V14.01,2013-03-06 21:13:00,
2013-03-06 16:15:00,32.9,26.2,30.08,SSE,164,9.0,16.0,76,0.00,,BKN041,0.02,65.00,VWS V14.01,2013-03-06 21:15:00,
2013-03-06 16:17:00,32.9,26.2,30.09,ESE,110,0.0,16.0,76,0.00,,BKN041,0.02,56.00,VWS V14.01,2013-03-06 21:17:00,
2013-03-06 16:18:00,32.9,26.5,30.09,East,96,6.0,16.0,77,0.00,,BKN041,0.02,51.00,VWS V14.01,2013-03-06 21:18:00,
2013-03-06 16:20:00,32.9,26.5,30.09,ESE,116,1.0,16.0,77,0.00,,BKN041,0.02,44.00,VWS V14.01,2013-03-06 21:20:00,
2013-03-06 16:22:00,32.8,26.4,30.09,ENE,68,3.0,16.0,77,0.00,,BKN041,0.02,40.00,VWS V14.01,2013-03-06 21:22:00,
2013-03-06 16:23:00,32.8,26.4,30.09,East,83,2.0,16.0,77,0.00,,BKN041,0.02,49.00,VWS V14.01,2013-03-06 21:23:00,
2013-03-06 16:25:00,32.8,26.4,30.09,ENE,64,2.0,16.0,77,0.00,,BKN041,0.02,49.00,VWS V14.01,2013-03-06 21:25:00,
2013-03-06 16:27:00,32.7,26.3,30.09,East,82,5.0,16.0,77,0.00,,BKN041,0.02,56.00,VWS V14.01,2013-03-06 21:27:00,
2013-03-06 16:28:00,32.7,26.3,30.09,NNW,336,6.0,16.0,77,0.00,,BKN041,0.02,56.00,VWS V14.01,2013-03-06 21:28:00,
2013-03-06 16:30:00,32.5,25.8,30.09,ENE,76,5.0,16.0,76,0.00,,BKN041,0.02,67.00,VWS V14.01,2013-03-06 21:30:00,
2013-03-06 16:31:00,32.5,25.8,30.09,ENE,69,2.0,16.0,76,0.00,,BKN041,0.02,72.00,VWS V14.01,2013-03-06 21:31:00,
2013-03-06 16:33:00,32.5,25.8,30.09,ENE,78,5.0,6.0,76,0.00,,BKN041,0.02,63.00,VWS V14.01,2013-03-06 21:33:00,
2013-03-06 16:34:00,32.4,25.7,30.09,ENE,65,1.0,6.0,76,0.00,,BKN041,0.02,63.00,VWS V14.01,2013-03-06 21:34:00,
2013-03-06 16:35:00,32.4,25.7,30.09,ENE,75,2.0,6.0,76,0.00,,BKN041,0.02,62.00,VWS V14.01,2013-03-06 21:35:00,
2013-03-06 16:36:00,32.4,26.0,30.09,East,86,1.0,6.0,77,0.00,,BKN041,0.02,58.00,VWS V14.01,2013-03-06 21:36:00,
2013-03-06 16:38:00,32.4,26.0,30.09,ENE,58,2.0,6.0,77,0.00,,BKN041,0.02,65.00,VWS V14.01,2013-03-06 21:38:00,
2013-03-06 16:39:00,32.4,26.0,30.09,East,89,0.0,6.0,77,0.00,,BKN041,0.02,77.00,VWS V14.01,2013-03-06 21:39:00,
2013-03-06 16:40:00,32.4,26.0,30.09,East,89,0.0,6.0,77,0.00,,BKN041,0.02,76.00,VWS V14.01,2013-03-06 21:40:00,
2013-03-06 16:42:00,32.4,26.0,30.09,ESE,114,4.0,8.0,77,0.00,,BKN041,0.02,60.00,VWS V14.01,2013-03-06 21:42:00,
2013-03-06 16:43:00,32.2,25.8,30.09,ENE,71,2.0,9.0,77,0.00,,BKN041,0.02,56.00,VWS V14.01,2013-03-06 21:43:00,
2013-03-06 16:44:00,32.2,25.8,30.09,ENE,75,0.0,9.0,77,0.00,,BKN041,0.02,55.00,VWS V14.01,2013-03-06 21:44:00,
2013-03-06 16:45:00,32.2,26.1,30.09,East,83,3.0,9.0,78,0.00,,BKN041,0.02,53.00,VWS V14.01,2013-03-06 21:45:00,
2013-03-06 16:47:00,32.2,26.1,30.09,NW,318,2.0,9.0,78,0.00,,BKN041,0.02,58.00,VWS V14.01,2013-03-06 21:47:00,
2013-03-06 16:49:00,32.2,26.1,30.09,ENE,66,2.0,9.0,78,0.00,,BKN041,0.02,53.00,VWS V14.01,2013-03-06 21:49:00,
2013-03-06 16:50:00,32.2,26.1,30.09,East,83,2.0,9.0,78,0.00,,BKN041,0.02,51.00,VWS V14.01,2013-03-06 21:50:00,
2013-03-06 16:52:00,32.1,26.0,30.09,ENE,68,2.0,9.0,78,0.00,,BKN041,0.02,44.00,VWS V14.01,2013-03-06 21:52:00,
2013-03-06 16:54:00,32.1,26.0,30.09,NE,48,0.0,9.0,78,0.00,,BKN041,0.02,42.00,VWS V14.01,2013-03-06 21:54:00,
2013-03-06 16:55:00,32.1,26.0,30.09,NE,49,0.0,9.0,78,0.00,,BKN041,0.02,40.00,VWS V14.01,2013-03-06 21:55:00,
2013-03-06 16:57:00,32.1,26.0,30.09,ESE,113,7.0,9.0,78,0.00,,BKN041,0.02,37.00,VWS V14.01,2013-03-06 21:57:00,
2013-03-06 17:00:00,32.1,26.0,30.09,East,82,3.0,12.0,78,0.00,,BKN041,0.02,33.00,VWS V14.01,2013-03-06 22:00:00,
2013-03-06 17:01:00,32.1,26.0,30.09,SE,144,7.0,12.0,78,0.00,,BKN041,0.02,33.00,VWS V14.01,2013-03-06 22:01:00,
2013-03-06 17:02:00,32.1,26.0,30.09,ENE,78,0.0,8.0,78,0.00,,OVC050,0.02,33.00,VWS V14.01,2013-03-06 22:02:00,
2013-03-06 17:05:00,32.1,26.0,30.09,ESE,113,2.0,8.0,78,0.00,,OVC050,0.02,23.00,VWS V14.01,2013-03-06 22:05:00,
2013-03-06 17:06:00,31.9,25.8,30.09,ENE,76,5.0,8.0,78,0.00,,OVC050,0.02,23.00,VWS V14.01,2013-03-06 22:06:00,
2013-03-06 17:07:00,31.9,25.5,30.09,East,89,0.0,8.0,77,0.00,,OVC050,0.02,23.00,VWS V14.01,2013-03-06 22:07:00,
2013-03-06 17:10:00,31.9,25.5,30.09,East,92,0.0,8.0,77,0.00,,OVC050,0.02,18.00,VWS V14.01,2013-03-06 22:10:00,
2013-03-06 17:11:00,31.9,25.5,30.09,NNW,332,5.0,8.0,77,0.00,,OVC050,0.02,18.00,VWS V14.01,2013-03-06 22:11:00,
2013-03-06 17:13:00,31.9,25.5,30.09,East,96,0.0,8.0,77,0.00,,OVC050,0.02,12.00,VWS V14.01,2013-03-06 22:13:00,
2013-03-06 17:16:00,31.9,25.5,30.11,SE,127,4.0,8.0,77,0.00,,OVC050,0.02,12.00,VWS V14.01,2013-03-06 22:16:00,
2013-03-06 17:18:00,31.9,25.2,30.11,East,88,1.0,8.0,76,0.00,,OVC050,0.02,9.00,VWS V14.01,2013-03-06 22:18:00,
2013-03-06 17:21:00,31.9,24.9,30.11,ESE,107,2.0,8.0,75,0.00,,OVC050,0.02,7.00,VWS V14.01,2013-03-06 22:21:00,
2013-03-06 17:22:00,31.9,24.9,30.11,East,93,3.0,8.0,75,0.00,,OVC050,0.02,7.00,VWS V14.01,2013-03-06 22:22:00,
2013-03-06 17:23:00,31.9,24.9,30.11,East,100,6.0,8.0,75,0.00,,OVC050,0.02,7.00,VWS V14.01,2013-03-06 22:23:00,
2013-03-06 17:26:00,31.9,24.6,30.11,ENE,73,2.0,11.0,74,0.00,,OVC050,0.02,5.00,VWS V14.01,2013-03-06 22:26:00,
2013-03-06 17:27:00,31.9,24.6,30.11,ESE,109,0.0,11.0,74,0.00,,OVC050,0.02,5.00,VWS V14.01,2013-03-06 22:27:00,
2013-03-06 17:28:00,31.9,24.6,30.11,NE,55,5.0,19.0,74,0.00,,OVC050,0.02,5.00,VWS V14.01,2013-03-06 22:28:00,
2013-03-06 17:30:00,31.5,25.4,30.12,East,95,0.0,8.0,78,0.00,,FEW080,0.02,0.00,VWS V14.01,2013-03-06 22:30:00,
2013-03-06 17:31:00,31.9,24.6,30.11,NE,47,4.0,19.0,74,0.00,,OVC050,0.02,0.00,VWS V14.01,2013-03-06 22:31:00,
2013-03-06 17:32:00,31.9,24.6,30.11,NE,45,2.0,3.0,74,0.00,,OVC050,0.02,0.00,VWS V14.01,2013-03-06 22:32:00,
2013-03-06 17:34:00,31.9,24.6,30.11,NE,54,4.0,6.0,74,0.00,,OVC050,0.02,0.00,VWS V14.01,2013-03-06 22:34:00,
2013-03-06 17:36:00,31.9,24.6,30.11,ENE,64,6.0,8.0,74,0.00,,OVC050,0.02,0.00,VWS V14.01,2013-03-06 22:36:00,
2013-03-06 17:37:00,31.9,24.6,30.11,NNE,27,3.0,8.0,74,0.00,,OVC050,0.02,0.00,VWS V14.01,2013-03-06 22:37:00,
2013-03-06 17:39:00,31.9,24.6,30.11,NE,51,2.0,8.0,74,0.00,,OVC050,0.02,0.00,VWS V14.01,2013-03-06 22:39:00,
2013-03-06 17:42:00,31.9,24.6,30.11,ENE,58,1.0,10.0,74,0.00,,OVC050,0.02,0.00,VWS V14.01,2013-03-06 22:42:00,
2013-03-06 17:44:00,31.9,24.6,30.11,NNE,32,0.0,10.0,74,0.00,,OVC050,0.02,0.00,VWS V14.01,2013-03-06 22:44:00,
2013-03-06 17:47:00,31.9,24.6,30.10,NE,48,0.0,10.0,74,0.00,,OVC050,0.02,0.00,VWS V14.01,2013-03-06 22:47:00,
2013-03-06 17:48:00,31.9,24.6,30.10,ESE,119,16.0,16.0,74,0.00,,OVC050,0.02,0.00,VWS V14.01,2013-03-06 22:48:00,
2013-03-06 17:49:00,31.9,24.6,30.10,NE,41,2.0,16.0,74,0.00,,OVC050,0.02,0.00,VWS V14.01,2013-03-06 22:49:00,
2013-03-06 17:52:00,31.9,24.6,30.10,West,261,3.0,16.0,74,0.00,,OVC050,0.02,0.00,VWS V14.01,2013-03-06 22:52:00,
2013-03-06 17:53:00,31.9,24.6,30.10,ENE,68,0.0,16.0,74,0.00,,OVC050,0.02,0.00,VWS V14.01,2013-03-06 22:53:00,
2013-03-06 17:54:00,31.9,24.6,30.10,North,354,2.0,16.0,74,0.00,,OVC050,0.02,0.00,VWS V14.01,2013-03-06 22:54:00,
2013-03-06 17:57:00,31.8,24.5,30.10,ENE,65,0.0,16.0,74,0.00,,OVC050,0.02,0.00,VWS V14.01,2013-03-06 22:57:00,
2013-03-06 17:58:00,31.8,24.5,30.10,ENE,58,0.0,16.0,74,0.00,,OVC050,0.02,0.00,VWS V14.01,2013-03-06 22:58:00,
2013-03-06 17:59:00,31.8,24.5,30.10,SE,131,4.0,16.0,74,0.00,,OVC050,0.02,0.00,VWS V14.01,2013-03-06 22:59:00,
2013-03-06 18:00:00,31.8,24.5,30.10,East,100,0.0,16.0,74,0.00,,OVC050,0.02,0.00,VWS V14.01,2013-03-06 23:00:00,
2013-03-06 18:02:00,31.8,24.5,30.10,ENE,66,6.0,6.0,74,0.00,,OVC050,0.02,0.00,VWS V14.01,2013-03-06 23:02:00,
2013-03-06 18:03:00,31.8,24.5,30.10,ENE,62,1.0,6.0,74,0.00,,OVC047,0.02,0.00,VWS V14.01,2013-03-06 23:03:00,
2013-03-06 18:05:00,31.8,24.5,30.10,East,82,0.0,6.0,74,0.00,,OVC047,0.02,0.00,VWS V14.01,2013-03-06 23:05:00,
2013-03-06 18:07:00,31.8,24.8,30.10,ESE,107,0.0,6.0,75,0.00,,OVC047,0.02,0.00,VWS V14.01,2013-03-06 23:07:00,
2013-03-06 18:08:00,31.8,24.8,30.10,SE,131,2.0,8.0,75,0.00,,OVC047,0.02,0.00,VWS V14.01,2013-03-06 23:08:00,
2013-03-06 18:10:00,31.8,24.8,30.10,ESE,113,4.0,8.0,75,0.00,,OVC047,0.02,0.00,VWS V14.01,2013-03-06 23:10:00,
2013-03-06 18:12:00,31.6,24.6,30.10,NE,41,0.0,8.0,75,0.00,,OVC047,0.02,0.00,VWS V14.01,2013-03-06 23:12:00,
2013-03-06 18:13:00,31.6,24.6,30.10,NE,38,0.0,8.0,75,0.00,,OVC047,0.02,0.00,VWS V14.01,2013-03-06 23:13:00,
2013-03-06 18:15:00,31.6,24.6,30.10,ESE,104,0.0,8.0,75,0.00,,OVC047,0.02,0.00,VWS V14.01,2013-03-06 23:15:00,
2013-03-06 18:16:00,31.6,24.6,30.10,ENE,72,3.0,8.0,75,0.00,,OVC047,0.02,0.00,VWS V14.01,2013-03-06 23:16:00,
2013-03-06 18:18:00,31.6,24.9,30.11,East,88,5.0,8.0,76,0.00,,OVC047,0.02,0.00,VWS V14.01,2013-03-06 23:18:00,
2013-03-06 18:19:00,31.6,24.9,30.11,NE,44,2.0,8.0,76,0.00,,OVC047,0.02,0.00,VWS V14.01,2013-03-06 23:19:00,
2013-03-06 18:20:00,31.6,24.9,30.11,NE,52,0.0,8.0,76,0.00,,OVC047,0.02,0.00,VWS V14.01,2013-03-06 23:20:00,
2013-03-06 18:21:00,31.6,24.9,30.11,NE,52,1.0,8.0,76,0.00,,OVC047,0.02,0.00,VWS V14.01,2013-03-06 23:21:00,
2013-03-06 18:23:00,31.6,25.2,30.11,ENE,58,0.0,8.0,77,0.00,,OVC047,0.02,0.00,VWS V14.01,2013-03-06 23:23:00,
2013-03-06 18:24:00,31.6,25.2,30.11,NE,54,0.0,8.0,77,0.00,,OVC047,0.02,0.00,VWS V14.01,2013-03-06 23:24:00,
2013-03-06 18:25:00,31.5,25.1,30.11,ENE,61,0.0,8.0,77,0.00,,OVC047,0.02,0.00,VWS V14.01,2013-03-06 23:25:00,
2013-03-06 18:26:00,31.5,25.1,30.11,East,82,6.0,8.0,77,0.00,,OVC047,0.02,0.00,VWS V14.01,2013-03-06 23:26:00,
2013-03-06 18:28:00,31.5,25.1,30.11,ENE,68,0.0,8.0,77,0.00,,OVC047,0.02,0.00,VWS V14.01,2013-03-06 23:28:00,
2013-03-06 18:30:00,31.5,25.1,30.11,East,90,1.0,8.0,77,0.00,,OVC047,0.02,0.00,VWS V14.01,2013-03-06 23:30:00,
2013-03-06 18:31:00,31.5,25.4,30.11,SE,130,0.0,8.0,78,0.00,,OVC047,0.02,0.00,VWS V14.01,2013-03-06 23:31:00,
2013-03-06 18:33:00,31.5,25.4,30.12,East,97,0.0,2.0,78,0.00,,OVC047,0.02,0.00,VWS V14.01,2013-03-06 23:33:00,
2013-03-06 18:35:00,31.5,25.4,30.12,SSE,150,2.0,3.0,78,0.00,,OVC047,0.02,0.00,VWS V14.01,2013-03-06 23:35:00,
2013-03-06 18:36:00,31.5,25.4,30.12,ENE,69,3.0,4.0,78,0.00,,OVC047,0.02,0.00,VWS V14.01,2013-03-06 23:36:00,
2013-03-06 18:38:00,31.3,25.2,30.12,NE,56,2.0,7.0,78,0.00,,OVC047,0.02,0.00,VWS V14.01,2013-03-06 23:38:00,
2013-03-06 18:40:00,31.3,25.2,30.12,ENE,61,0.0,7.0,78,0.00,,OVC047,0.02,0.00,VWS V14.01,2013-03-06 23:40:00,
2013-03-06 18:41:00,31.3,25.2,30.12,East,85,0.0,7.0,78,0.00,,OVC047,0.02,0.00,VWS V14.01,2013-03-06 23:41:00,
2013-03-06 18:42:00,31.3,25.2,30.12,East,85,0.0,7.0,78,0.00,,OVC047,0.02,0.00,VWS V14.01,2013-03-06 23:42:00,
2013-03-06 18:43:00,31.3,25.2,30.12,ESE,103,10.0,10.0,78,0.00,,OVC047,0.02,0.00,VWS V14.01,2013-03-06 23:43:00,
2013-03-06 18:45:00,31.3,25.2,30.12,NE,47,0.0,10.0,78,0.00,,OVC047,0.02,0.00,VWS V14.01,2013-03-06 23:45:00,
2013-03-06 18:47:00,31.3,25.2,30.12,NNE,18,3.0,12.0,78,0.00,,OVC047,0.02,0.00,VWS V14.01,2013-03-06 23:47:00,
2013-03-06 18:49:00,31.3,25.2,30.12,NNE,25,0.0,12.0,78,0.00,,OVC047,0.02,0.00,VWS V14.01,2013-03-06 23:49:00,
2013-03-06 18:50:00,31.2,25.1,30.12,NE,38,0.0,12.0,78,0.00,,OVC047,0.02,0.00,VWS V14.01,2013-03-06 23:50:00,
2013-03-06 18:52:00,31.2,25.5,30.12,NNE,31,0.0,12.0,79,0.00,,OVC047,0.02,0.00,VWS V14.01,2013-03-06 23:52:00,
2013-03-06 18:54:00,31.2,25.5,30.12,ENE,65,3.0,12.0,79,0.00,,OVC047,0.02,0.00,VWS V14.01,2013-03-06 23:54:00,
2013-03-06 18:56:00,31.2,25.5,30.12,NE,51,0.0,12.0,79,0.00,,OVC047,0.02,0.00,VWS V14.01,2013-03-06 23:56:00,
2013-03-06 18:57:00,31.2,25.5,30.12,NE,51,0.0,12.0,79,0.00,,OVC047,0.02,0.00,VWS V14.01,2013-03-06 23:57:00,
2013-03-06 19:00:00,31.0,25.3,30.12,ENE,78,3.0,12.0,79,0.00,,OVC047,0.02,0.00,VWS V14.01,2013-03-07 00:00:00,
2013-03-06 19:01:00,31.0,25.3,30.11,WNW,291,3.0,12.0,79,0.00,,OVC047,0.02,0.00,VWS V14.01,2013-03-07 00:01:00,
2013-03-06 19:02:00,31.0,25.3,30.11,ENE,73,7.0,7.0,79,0.00,,OVC049,0.02,0.00,VWS V14.01,2013-03-07 00:02:00,
2013-03-06 19:05:00,31.0,25.3,30.11,NE,49,0.0,7.0,79,0.00,,OVC049,0.02,0.00,VWS V14.01,2013-03-07 00:05:00,
2013-03-06 19:06:00,31.0,25.3,30.11,NE,55,1.0,7.0,79,0.00,,OVC049,0.02,0.00,VWS V14.01,2013-03-07 00:06:00,
2013-03-06 19:07:00,31.0,25.3,30.11,NE,55,0.0,7.0,79,0.00,,OVC049,0.02,0.00,VWS V14.01,2013-03-07 00:07:00,
2013-03-06 19:10:00,31.0,25.6,30.11,NE,56,2.0,7.0,80,0.00,,OVC049,0.02,0.00,VWS V14.01,2013-03-07 00:10:00,
2013-03-06 19:11:00,30.9,25.5,30.11,NE,49,2.0,7.0,80,0.00,,OVC049,0.02,0.00,VWS V14.01,2013-03-07 00:11:00,
2013-03-06 19:13:00,30.9,25.5,30.11,ENE,59,3.0,7.0,80,0.00,,OVC049,0.02,0.00,VWS V14.01,2013-03-07 00:13:00,
2013-03-06 19:15:00,30.9,25.2,30.11,ENE,64,0.0,12.0,79,0.00,,OVC049,0.02,0.00,VWS V14.01,2013-03-07 00:15:00,
2013-03-06 19:17:00,30.9,25.2,30.12,NE,52,1.0,12.0,79,0.00,,OVC049,0.02,0.00,VWS V14.01,2013-03-07 00:17:00,
2013-03-06 19:18:00,30.9,25.2,30.12,NE,52,0.0,12.0,79,0.00,,OVC049,0.02,0.00,VWS V14.01,2013-03-07 00:18:00,
2013-03-06 19:20:00,30.9,25.2,30.12,NE,45,0.0,12.0,79,0.00,,OVC049,0.02,0.00,VWS V14.01,2013-03-07 00:20:00,
2013-03-06 19:22:00,30.9,25.2,30.12,NE,51,3.0,12.0,79,0.00,,OVC049,0.02,0.00,VWS V14.01,2013-03-07 00:22:00,
2013-03-06 19:23:00,30.9,25.5,30.12,NE,47,0.0,12.0,80,0.00,,OVC049,0.02,0.00,VWS V14.01,2013-03-07 00:23:00,
2013-03-06 19:26:00,30.9,25.5,30.12,NE,44,2.0,12.0,80,0.00,,OVC049,0.02,0.00,VWS V14.01,2013-03-07 00:26:00,
2013-03-06 19:27:00,30.7,25.3,30.12,NE,47,2.0,12.0,80,0.00,,OVC049,0.02,0.00,VWS V14.01,2013-03-07 00:27:00,
2013-03-06 19:28:00,30.7,25.3,30.12,NE,47,2.0,12.0,80,0.00,,OVC049,0.02,0.00,VWS V14.01,2013-03-07 00:28:00,
2013-03-06 19:29:00,30.7,25.3,30.12,ENE,75,0.0,12.0,80,0.00,,OVC049,0.02,0.00,VWS V14.01,2013-03-07 00:29:00,
2013-03-06 19:30:00,30.1,25.3,30.10,NE,56,2.0,6.0,82,0.00,,FEW080,0.02,0.00,VWS V14.01,2013-03-07 00:30:00,
2013-03-06 19:31:00,30.7,25.3,30.11,NE,54,6.0,12.0,80,0.00,,OVC049,0.02,0.00,VWS V14.01,2013-03-07 00:31:00,
2013-03-06 19:33:00,30.7,25.3,30.11,NE,49,3.0,5.0,80,0.00,,OVC049,0.02,0.00,VWS V14.01,2013-03-07 00:33:00,
2013-03-06 19:34:00,30.7,25.3,30.11,East,79,7.0,7.0,80,0.00,,OVC049,0.02,0.00,VWS V14.01,2013-03-07 00:34:00,
2013-03-06 19:36:00,30.7,25.3,30.11,NE,55,0.0,7.0,80,0.00,,OVC049,0.02,0.00,VWS V14.01,2013-03-07 00:36:00,
2013-03-06 19:38:00,30.7,25.3,30.11,NE,55,3.0,7.0,80,0.00,,OVC049,0.02,0.00,VWS V14.01,2013-03-07 00:38:00,
2013-03-06 19:39:00,30.7,25.3,30.11,NE,55,1.0,7.0,80,0.00,,OVC049,0.02,0.00,VWS V14.01,2013-03-07 00:39:00,
2013-03-06 19:41:00,30.6,25.2,30.11,NE,45,6.0,7.0,80,0.00,,OVC049,0.02,0.00,VWS V14.01,2013-03-07 00:41:00,
2013-03-06 19:43:00,30.6,25.2,30.11,NE,52,0.0,7.0,80,0.00,,OVC049,0.02,0.00,VWS V14.01,2013-03-07 00:43:00,
2013-03-06 19:44:00,30.6,25.2,30.11,NE,40,3.0,7.0,80,0.00,,OVC049,0.02,0.00,VWS V14.01,2013-03-07 00:44:00,
2013-03-06 19:45:00,30.6,25.2,30.11,ENE,71,2.0,7.0,80,0.00,,OVC049,0.02,0.00,VWS V14.01,2013-03-07 00:45:00,
2013-03-06 19:46:00,30.6,25.2,30.11,ENE,61,3.0,7.0,80,0.00,,OVC049,0.02,0.00,VWS V14.01,2013-03-07 00:46:00,
2013-03-06 19:49:00,30.6,25.2,30.11,ENE,68,0.0,7.0,80,0.00,,OVC049,0.02,0.00,VWS V14.01,2013-03-07 00:49:00,
2013-03-06 19:50:00,30.6,25.2,30.11,NE,48,1.0,7.0,80,0.00,,OVC049,0.02,0.00,VWS V14.01,2013-03-07 00:50:00,
2013-03-06 19:51:00,30.6,25.5,30.11,ENE,65,5.0,7.0,81,0.00,,OVC049,0.02,0.00,VWS V14.01,2013-03-07 00:51:00,
2013-03-06 19:55:00,30.4,25.3,30.11,NE,55,0.0,7.0,81,0.00,,OVC049,0.02,0.00,VWS V14.01,2013-03-07 00:55:00,
2013-03-06 19:57:00,30.4,25.3,30.11,North,7,2.0,7.0,81,0.00,,OVC049,0.02,0.00,VWS V14.01,2013-03-07 00:57:00,
2013-03-06 20:00:00,30.4,25.3,30.11,NE,47,3.0,7.0,81,0.00,,OVC049,0.02,0.00,VWS V14.01,2013-03-07 01:00:00,
2013-03-06 20:01:00,30.4,25.3,30.11,ENE,71,0.0,7.0,81,0.00,,OVC049,0.02,0.00,VWS V14.01,2013-03-07 01:01:00,
2013-03-06 20:02:00,30.4,25.3,30.11,ENE,76,0.0,2.0,81,0.00,,OVC049,0.02,0.00,VWS V14.01,2013-03-07 01:02:00,
2013-03-06 20:05:00,30.4,25.3,30.11,ENE,69,2.0,5.0,81,0.00,,OVC049,0.02,0.00,VWS V14.01,2013-03-07 01:05:00,
2013-03-06 20:06:00,30.4,25.3,30.11,ENE,71,3.0,5.0,81,0.00,,OVC049,0.02,0.00,VWS V14.01,2013-03-07 01:06:00,
2013-03-06 20:07:00,30.4,25.3,30.11,ENE,69,0.0,5.0,81,0.00,,OVC049,0.02,0.00,VWS V14.01,2013-03-07 01:07:00,
2013-03-06 20:11:00,30.4,25.3,30.11,ENE,66,0.0,5.0,81,0.00,,OVC049,0.02,0.00,VWS V14.01,2013-03-07 01:11:00,
2013-03-06 20:12:00,30.3,25.2,30.11,East,86,0.0,6.0,81,0.00,,OVC049,0.02,0.00,VWS V14.01,2013-03-07 01:12:00,
2013-03-06 20:16:00,30.3,25.2,30.11,NE,55,0.0,6.0,81,0.00,,OVC049,0.02,0.00,VWS V14.01,2013-03-07 01:16:00,
2013-03-06 20:17:00,30.3,25.2,30.11,ENE,59,0.0,6.0,81,0.00,,OVC049,0.02,0.00,VWS V14.01,2013-03-07 01:17:00,
2013-03-06 20:21:00,30.3,25.2,30.11,ENE,58,0.0,6.0,81,0.00,,OVC049,0.02,0.00,VWS V14.01,2013-03-07 01:21:00,
2013-03-06 20:22:00,30.3,25.2,30.11,NE,48,5.0,6.0,81,0.00,,OVC049,0.02,0.00,VWS V14.01,2013-03-07 01:22:00,
2013-03-06 20:23:00,30.3,25.2,30.11,ENE,73,2.0,6.0,81,0.00,,OVC049,0.02,0.00,VWS V14.01,2013-03-07 01:23:00,
2013-03-06 20:26:00,30.3,25.5,30.11,East,82,1.0,6.0,82,0.00,,OVC049,0.02,0.00,VWS V14.01,2013-03-07 01:26:00,
2013-03-06 20:27:00,30.3,25.5,30.11,ENE,78,0.0,6.0,82,0.00,,OVC049,0.02,0.00,VWS V14.01,2013-03-07 01:27:00,
2013-03-06 20:28:00,30.3,25.5,30.11,North,0,0.0,6.0,82,0.00,,OVC049,0.02,0.00,VWS V14.01,2013-03-07 01:28:00,
2013-03-06 20:30:00,29.7,24.6,30.10,ENE,64,0.0,7.0,81,0.00,,FEW080,0.02,0.00,VWS V14.01,2013-03-07 01:30:00,
2013-03-06 20:31:00,30.1,25.3,30.10,NNE,30,2.0,6.0,82,0.00,,OVC049,0.02,0.00,VWS V14.01,2013-03-07 01:31:00,
2013-03-06 20:33:00,30.1,25.3,30.10,NE,56,0.0,2.0,82,0.00,,OVC049,0.02,0.00,VWS V14.01,2013-03-07 01:33:00,
2013-03-06 20:34:00,30.1,25.3,30.10,NE,48,2.0,3.0,82,0.00,,OVC049,0.02,0.00,VWS V14.01,2013-03-07 01:34:00,
2013-03-06 20:36:00,30.1,25.3,30.10,East,92,0.0,6.0,82,0.00,,OVC049,0.02,0.00,VWS V14.01,2013-03-07 01:36:00,
2013-03-06 20:38:00,30.1,25.3,30.10,ENE,65,3.0,6.0,82,0.00,,OVC049,0.02,0.00,VWS V14.01,2013-03-07 01:38:00,
2013-03-06 20:39:00,30.1,25.3,30.10,ENE,73,1.0,6.0,82,0.00,,OVC049,0.02,0.00,VWS V14.01,2013-03-07 01:39:00,
2013-03-06 20:42:00,30.0,25.2,30.10,East,82,2.0,6.0,82,0.00,,OVC049,0.02,0.00,VWS V14.01,2013-03-07 01:42:00,
2013-03-06 20:43:00,30.0,25.2,30.10,ENE,73,4.0,6.0,82,0.00,,OVC049,0.02,0.00,VWS V14.01,2013-03-07 01:43:00,
2013-03-06 20:45:00,30.0,25.2,30.10,East,80,0.0,6.0,82,0.00,,OVC049,0.02,0.00,VWS V14.01,2013-03-07 01:45:00,
2013-03-06 20:47:00,30.0,25.2,30.11,ENE,76,0.0,6.0,82,0.00,,OVC049,0.02,0.00,VWS V14.01,2013-03-07 01:47:00,
2013-03-06 20:48:00,30.0,25.2,30.11,ENE,76,2.0,6.0,82,0.00,,OVC049,0.02,0.00,VWS V14.01,2013-03-07 01:48:00,
2013-03-06 20:50:00,30.0,25.2,30.11,ENE,73,0.0,6.0,82,0.00,,OVC049,0.02,0.00,VWS V14.01,2013-03-07 01:50:00,
2013-03-06 20:52:00,30.0,25.2,30.11,East,82,3.0,6.0,82,0.00,,OVC049,0.02,0.00,VWS V14.01,2013-03-07 01:52:00,
2013-03-06 20:53:00,30.0,25.2,30.11,ESE,114,5.0,6.0,82,0.00,,OVC049,0.02,0.00,VWS V14.01,2013-03-07 01:53:00,
2013-03-06 20:54:00,30.0,25.2,30.11,ESE,114,0.0,6.0,82,0.00,,OVC049,0.02,0.00,VWS V14.01,2013-03-07 01:54:00,
2013-03-06 20:55:00,30.0,25.2,30.11,East,90,0.0,6.0,82,0.00,,OVC049,0.02,0.00,VWS V14.01,2013-03-07 01:55:00,
2013-03-06 20:57:00,29.8,25.0,30.11,ESE,123,0.0,6.0,82,0.00,,OVC049,0.02,0.00,VWS V14.01,2013-03-07 01:57:00,
2013-03-06 20:59:00,29.8,25.0,30.11,ENE,73,1.0,6.0,82,0.00,,OVC049,0.02,0.00,VWS V14.01,2013-03-07 01:59:00,
2013-03-06 21:00:00,29.8,25.0,30.11,ENE,65,2.0,6.0,82,0.00,,OVC049,0.02,0.00,VWS V14.01,2013-03-07 02:00:00,
2013-03-06 21:02:00,29.8,25.0,30.10,ENE,71,2.0,3.0,82,0.00,,OVC048,0.02,0.00,VWS V14.01,2013-03-07 02:02:00,
2013-03-06 21:04:00,29.8,25.0,30.10,ENE,71,0.0,3.0,82,0.00,,OVC048,0.02,0.00,VWS V14.01,2013-03-07 02:04:00,
2013-03-06 21:06:00,29.8,25.3,30.10,ENE,76,0.0,3.0,83,0.00,,OVC048,0.02,0.00,VWS V14.01,2013-03-07 02:06:00,
2013-03-06 21:08:00,29.8,25.3,30.10,ESE,112,7.0,7.0,83,0.00,,OVC048,0.02,0.00,VWS V14.01,2013-03-07 02:08:00,
2013-03-06 21:09:00,29.8,25.3,30.10,ENE,71,6.0,7.0,83,0.00,,OVC048,0.02,0.00,VWS V14.01,2013-03-07 02:09:00,
2013-03-06 21:11:00,29.8,25.3,30.10,NE,34,0.0,7.0,83,0.00,,OVC048,0.02,0.00,VWS V14.01,2013-03-07 02:11:00,
2013-03-06 21:13:00,29.7,25.2,30.10,NE,48,0.0,7.0,83,0.00,,OVC048,0.02,0.00,VWS V14.01,2013-03-07 02:13:00,
2013-03-06 21:14:00,29.7,25.2,30.10,NNE,32,0.0,7.0,83,0.00,,OVC048,0.02,0.00,VWS V14.01,2013-03-07 02:14:00,
2013-03-06 21:15:00,29.7,25.2,30.10,NNE,32,0.0,7.0,83,0.00,,OVC048,0.02,0.00,VWS V14.01,2013-03-07 02:15:00,
2013-03-06 21:16:00,29.7,25.2,30.10,ENE,62,0.0,7.0,83,0.00,,OVC048,0.02,0.00,VWS V14.01,2013-03-07 02:16:00,
2013-03-06 21:18:00,29.7,24.9,30.10,ENE,59,0.0,7.0,82,0.00,,OVC048,0.02,0.00,VWS V14.01,2013-03-07 02:18:00,
2013-03-06 21:20:00,29.7,24.9,30.10,ENE,59,0.0,7.0,82,0.00,,OVC048,0.02,0.00,VWS V14.01,2013-03-07 02:20:00,
2013-03-06 21:21:00,29.7,24.9,30.10,NE,47,2.0,7.0,82,0.00,,OVC048,0.02,0.00,VWS V14.01,2013-03-07 02:21:00,
2013-03-06 21:24:00,29.7,24.9,30.10,NE,54,6.0,7.0,82,0.00,,OVC048,0.02,0.00,VWS V14.01,2013-03-07 02:24:00,
2013-03-06 21:25:00,29.7,24.9,30.10,West,272,6.0,7.0,82,0.00,,OVC048,0.02,0.00,VWS V14.01,2013-03-07 02:25:00,
2013-03-06 21:26:00,29.7,24.9,30.10,NE,54,2.0,7.0,82,0.00,,OVC048,0.02,0.00,VWS V14.01,2013-03-07 02:26:00,
2013-03-06 21:27:00,29.7,24.9,30.10,NE,47,5.0,7.0,82,0.00,,OVC048,0.02,0.00,VWS V14.01,2013-03-07 02:27:00,
2013-03-06 21:30:00,29.7,24.9,30.10,ENE,69,3.0,7.0,82,0.00,,OVC048,0.02,0.00,VWS V14.01,2013-03-07 02:30:00,
2013-03-06 21:31:00,29.7,24.6,30.10,ENE,64,0.0,7.0,81,0.00,,OVC048,0.02,0.00,VWS V14.01,2013-03-07 02:31:00,
2013-03-06 21:32:00,29.7,24.6,30.10,East,86,2.0,2.0,81,0.00,,OVC048,0.02,0.00,VWS V14.01,2013-03-07 02:32:00,
2013-03-06 21:35:00,29.7,24.6,30.10,NE,47,0.0,3.0,81,0.00,,OVC048,0.02,0.00,VWS V14.01,2013-03-07 02:35:00,
2013-03-06 21:36:00,29.7,24.6,30.10,NE,40,1.0,3.0,81,0.00,,OVC048,0.02,0.00,VWS V14.01,2013-03-07 02:36:00,
2013-03-06 21:37:00,29.7,24.6,30.10,NE,40,3.0,3.0,81,0.00,,OVC048,0.02,0.00,VWS V14.01,2013-03-07 02:37:00,
2013-03-06 21:40:00,29.7,24.6,30.10,ENE,76,0.0,5.0,81,0.00,,OVC048,0.02,0.00,VWS V14.01,2013-03-07 02:40:00,
2013-03-06 21:41:00,29.7,24.6,30.10,ENE,72,0.0,5.0,81,0.00,,OVC048,0.02,0.00,VWS V14.01,2013-03-07 02:41:00,
2013-03-06 21:42:00,29.7,24.6,30.10,ENE,66,0.0,5.0,81,0.00,,OVC048,0.02,0.00,VWS V14.01,2013-03-07 02:42:00,
2013-03-06 21:45:00,29.7,24.6,30.10,NE,52,0.0,5.0,81,0.00,,OVC048,0.02,0.00,VWS V14.01,2013-03-07 02:45:00,
2013-03-06 21:46:00,29.7,24.3,30.10,NE,54,0.0,5.0,80,0.00,,OVC048,0.02,0.00,VWS V14.01,2013-03-07 02:46:00,
2013-03-06 21:47:00,29.7,24.3,30.10,NE,52,0.0,5.0,80,0.00,,OVC048,0.02,0.00,VWS V14.01,2013-03-07 02:47:00,
2013-03-06 21:48:00,29.7,24.3,30.10,NE,52,0.0,5.0,80,0.00,,OVC048,0.02,0.00,VWS V14.01,2013-03-07 02:48:00,
2013-03-06 21:51:00,29.8,24.7,30.10,NNE,18,0.0,5.0,81,0.00,,OVC048,0.02,0.00,VWS V14.01,2013-03-07 02:51:00,
2013-03-06 21:53:00,29.8,24.7,30.10,NE,47,2.0,5.0,81,0.00,,OVC048,0.02,0.00,VWS V14.01,2013-03-07 02:53:00,
2013-03-06 21:56:00,29.8,24.7,30.10,NE,49,2.0,7.0,81,0.00,,OVC048,0.02,0.00,VWS V14.01,2013-03-07 02:56:00,
2013-03-06 21:58:00,29.7,24.6,30.10,NE,51,1.0,7.0,81,0.00,,OVC048,0.02,0.00,VWS V14.01,2013-03-07 02:58:00,
2013-03-06 22:00:00,29.1,25.2,30.07,ENE,59,0.0,15.0,85,0.00,,FEW080,0.02,0.00,VWS V14.01,2013-03-07 03:00:00,
2013-03-06 22:01:00,29.7,24.9,30.09,NE,54,0.0,7.0,82,0.00,,OVC048,0.02,0.00,VWS V14.01,2013-03-07 03:01:00,
2013-03-06 22:02:00,29.7,24.9,30.09,NE,52,4.0,7.0,82,0.00,,OVC048,0.02,0.00,VWS V14.01,2013-03-07 03:02:00,
2013-03-06 22:03:00,29.7,24.9,30.09,NE,52,0.0,4.0,82,0.00,,OVC026,0.02,0.00,VWS V14.01,2013-03-07 03:03:00,
2013-03-06 22:07:00,29.7,24.9,30.09,NE,52,0.0,5.0,82,0.00,,OVC026,0.02,0.00,VWS V14.01,2013-03-07 03:07:00,
2013-03-06 22:08:00,29.7,25.2,30.09,ENE,66,4.0,5.0,83,0.00,,OVC026,0.02,0.00,VWS V14.01,2013-03-07 03:08:00,
2013-03-06 22:09:00,29.7,25.2,30.09,East,82,2.0,5.0,83,0.00,,OVC026,0.02,0.00,VWS V14.01,2013-03-07 03:09:00,
2013-03-06 22:12:00,29.7,25.2,30.09,East,80,0.0,5.0,83,0.00,,OVC026,0.02,0.00,VWS V14.01,2013-03-07 03:12:00,
2013-03-06 22:13:00,29.7,25.2,30.09,ENE,65,0.0,5.0,83,0.00,,OVC026,0.02,0.00,VWS V14.01,2013-03-07 03:13:00,
2013-03-06 22:14:00,29.7,25.2,30.09,ENE,65,0.0,5.0,83,0.00,,OVC026,0.02,0.00,VWS V14.01,2013-03-07 03:14:00,
2013-03-06 22:17:00,29.5,25.0,30.09,ENE,62,0.0,5.0,83,0.00,,OVC026,0.02,0.00,VWS V14.01,2013-03-07 03:17:00,
2013-03-06 22:19:00,29.5,25.3,30.09,ENE,62,0.0,5.0,84,0.00,,OVC026,0.02,0.00,VWS V14.01,2013-03-07 03:19:00,
2013-03-06 22:22:00,29.5,25.3,30.09,ENE,62,0.0,5.0,84,0.00,,OVC026,0.02,0.00,VWS V14.01,2013-03-07 03:22:00,
2013-03-06 22:24:00,29.5,25.3,30.09,ENE,61,0.0,5.0,84,0.00,,OVC026,0.02,0.00,VWS V14.01,2013-03-07 03:24:00,
2013-03-06 22:27:00,29.5,25.3,30.09,ENE,76,2.0,6.0,84,0.00,,OVC026,0.02,0.00,VWS V14.01,2013-03-07 03:27:00,
2013-03-06 22:28:00,29.5,25.3,30.09,ENE,64,1.0,6.0,84,0.00,,OVC026,0.02,0.00,VWS V14.01,2013-03-07 03:28:00,
2013-03-06 22:29:00,29.5,25.3,30.09,NE,37,1.0,6.0,84,0.00,,OVC026,0.02,0.00,VWS V14.01,2013-03-07 03:29:00,
2013-03-06 22:30:00,29.5,25.3,30.09,NE,41,3.0,6.0,84,0.00,,OVC026,0.02,0.00,VWS V14.01,2013-03-07 03:30:00,
2013-03-06 22:32:00,29.5,25.3,30.08,NE,45,0.0,5.0,84,0.00,,OVC026,0.02,0.00,VWS V14.01,2013-03-07 03:32:00,
2013-03-06 22:33:00,29.5,25.3,30.08,North,359,0.0,5.0,84,0.00,,OVC026,0.02,0.00,VWS V14.01,2013-03-07 03:33:00,
2013-03-06 22:35:00,29.5,25.3,30.08,ENE,59,0.0,6.0,84,0.00,,OVC026,0.02,0.00,VWS V14.01,2013-03-07 03:35:00,
2013-03-06 22:37:00,29.4,25.2,30.08,NE,49,4.0,8.0,84,0.00,,OVC026,0.02,0.00,VWS V14.01,2013-03-07 03:37:00,
2013-03-06 22:38:00,29.4,25.2,30.08,NE,55,4.0,8.0,84,0.00,,OVC026,0.02,0.00,VWS V14.01,2013-03-07 03:38:00,
2013-03-06 22:40:00,29.4,25.2,30.08,NE,54,0.0,8.0,84,0.00,,OVC026,0.02,0.00,VWS V14.01,2013-03-07 03:40:00,
2013-03-06 22:43:00,29.4,25.2,30.08,NE,38,0.0,8.0,84,0.00,,OVC026,0.02,0.00,VWS V14.01,2013-03-07 03:43:00,
2013-03-06 22:45:00,29.4,25.2,30.08,NE,52,4.0,8.0,84,0.00,,OVC026,0.02,0.00,VWS V14.01,2013-03-07 03:45:00,
2013-03-06 22:48:00,29.3,25.1,30.08,ENE,62,2.0,15.0,84,0.00,,OVC026,0.02,0.00,VWS V14.01,2013-03-07 03:48:00,
2013-03-06 22:49:00,29.3,25.1,30.08,ENE,64,0.0,15.0,84,0.00,,OVC026,0.02,0.00,VWS V14.01,2013-03-07 03:49:00,
2013-03-06 22:50:00,29.3,25.1,30.08,ENE,72,6.0,15.0,84,0.00,,OVC026,0.02,0.00,VWS V14.01,2013-03-07 03:50:00,
2013-03-06 22:51:00,29.3,25.1,30.08,ENE,73,5.0,15.0,84,0.00,,OVC026,0.02,0.00,VWS V14.01,2013-03-07 03:51:00,
2013-03-06 22:53:00,29.3,25.4,30.08,ENE,59,2.0,15.0,85,0.00,,OVC026,0.02,0.00,VWS V14.01,2013-03-07 03:53:00,
2013-03-06 22:54:00,29.3,25.4,30.08,NNE,25,6.0,15.0,85,0.00,,OVC026,0.02,0.00,VWS V14.01,2013-03-07 03:54:00,
2013-03-06 22:56:00,29.3,25.4,30.08,East,83,2.0,15.0,85,0.00,,OVC026,0.02,0.00,VWS V14.01,2013-03-07 03:56:00,
2013-03-06 22:58:00,29.3,25.4,30.08,NE,48,2.0,15.0,85,0.00,,OVC026,0.02,0.00,VWS V14.01,2013-03-07 03:58:00,
2013-03-06 22:59:00,29.3,25.4,30.08,NE,52,1.0,15.0,85,0.00,,OVC026,0.02,0.00,VWS V14.01,2013-03-07 03:59:00,
2013-03-06 23:00:00,28.7,25.6,30.07,NE,38,0.0,6.0,88,0.00,,FEW080,0.02,0.00,VWS V14.01,2013-03-07 04:00:00,
2013-03-06 23:01:00,29.1,25.2,30.08,ENE,59,0.0,15.0,85,0.00,,OVC026,0.02,0.00,VWS V14.01,2013-03-07 04:01:00,
2013-03-06 23:04:00,29.1,25.2,30.08,ENE,58,0.0,6.0,85,0.00,,OVC026,0.02,0.00,VWS V14.01,2013-03-07 04:04:00,
2013-03-06 23:06:00,29.1,25.2,30.08,NE,37,1.0,6.0,85,0.00,,OVC026,0.02,0.00,VWS V14.01,2013-03-07 04:06:00,
2013-03-06 23:07:00,29.1,25.2,30.08,NE,44,0.0,6.0,85,0.00,,OVC026,0.02,0.00,VWS V14.01,2013-03-07 04:07:00,
2013-03-06 23:09:00,29.1,25.4,30.08,ENE,75,2.0,6.0,86,0.00,,OVC026,0.02,0.00,VWS V14.01,2013-03-07 04:09:00,
2013-03-06 23:10:00,29.1,25.4,30.08,ENE,75,0.0,6.0,86,0.00,,OVC026,0.02,0.00,VWS V14.01,2013-03-07 04:10:00,
2013-03-06 23:11:00,29.1,25.4,30.08,ENE,68,0.0,6.0,86,0.00,,OVC026,0.02,0.00,VWS V14.01,2013-03-07 04:11:00,
2013-03-06 23:12:00,29.1,25.4,30.08,ENE,62,0.0,6.0,86,0.00,,OVC026,0.02,0.00,VWS V14.01,2013-03-07 04:12:00,
2013-03-06 23:15:00,29.1,25.4,30.08,NE,56,3.0,8.0,86,0.00,,OVC026,0.02,0.00,VWS V14.01,2013-03-07 04:15:00,
2013-03-06 23:17:00,29.0,25.4,30.08,NE,47,2.0,8.0,86,0.00,,OVC026,0.02,0.00,VWS V14.01,2013-03-07 04:17:00,
2013-03-06 23:20:00,29.0,25.4,30.08,NE,47,0.0,8.0,86,0.00,,OVC026,0.02,0.00,VWS V14.01,2013-03-07 04:20:00,
2013-03-06 23:22:00,29.0,25.4,30.08,NE,34,3.0,8.0,86,0.00,,OVC026,0.02,0.00,VWS V14.01,2013-03-07 04:22:00,
2013-03-06 23:25:00,29.0,25.4,30.08,ENE,64,2.0,8.0,86,0.00,,OVC026,0.02,0.00,VWS V14.01,2013-03-07 04:25:00,
2013-03-06 23:27:00,29.0,25.4,30.08,NE,54,2.0,8.0,86,0.00,,OVC026,0.02,0.00,VWS V14.01,2013-03-07 04:27:00,
2013-03-06 23:28:00,29.0,25.4,30.08,ENE,78,3.0,8.0,86,0.00,,OVC026,0.02,0.00,VWS V14.01,2013-03-07 04:28:00,
2013-03-06 23:30:00,29.0,25.6,30.08,ENE,75,0.0,8.0,87,0.00,,OVC026,0.02,0.00,VWS V14.01,2013-03-07 04:30:00,
2013-03-06 23:32:00,29.0,25.6,30.08,ENE,62,3.0,3.0,87,0.00,,OVC026,0.02,0.00,VWS V14.01,2013-03-07 04:32:00,
2013-03-06 23:33:00,29.0,25.6,30.08,ENE,62,0.0,3.0,87,0.00,,OVC026,0.02,0.00,VWS V14.01,2013-03-07 04:33:00,
2013-03-06 23:35:00,29.0,25.6,30.08,East,85,2.0,5.0,87,0.00,,OVC026,0.02,0.00,VWS V14.01,2013-03-07 04:35:00,
2013-03-06 23:36:00,29.0,25.6,30.08,NE,55,1.0,5.0,87,0.00,,OVC026,0.02,0.00,VWS V14.01,2013-03-07 04:36:00,
2013-03-06 23:37:00,29.0,25.6,30.08,NE,45,2.0,5.0,87,0.00,,OVC026,0.02,0.00,VWS V14.01,2013-03-07 04:37:00,
2013-03-06 23:38:00,29.0,25.6,30.08,NE,47,1.0,5.0,87,0.00,,OVC026,0.02,0.00,VWS V14.01,2013-03-07 04:38:00,
2013-03-06 23:40:00,29.0,25.6,30.08,NE,41,3.0,6.0,87,0.00,,OVC026,0.02,0.00,VWS V14.01,2013-03-07 04:40:00,
2013-03-06 23:41:00,29.0,25.6,30.08,NE,41,2.0,6.0,87,0.00,,OVC026,0.02,0.00,VWS V14.01,2013-03-07 04:41:00,
2013-03-06 23:43:00,28.8,25.4,30.08,NE,42,0.0,6.0,87,0.00,,OVC026,0.02,0.00,VWS V14.01,2013-03-07 04:43:00,
2013-03-06 23:46:00,28.8,25.4,30.08,NE,54,3.0,6.0,87,0.00,,OVC026,0.02,0.00,VWS V14.01,2013-03-07 04:46:00,
2013-03-06 23:47:00,28.8,25.4,30.08,NE,54,1.0,6.0,87,0.00,,OVC026,0.02,0.00,VWS V14.01,2013-03-07 04:47:00,
2013-03-06 23:48:00,28.8,25.4,30.08,NE,37,3.0,6.0,87,0.00,,OVC026,0.02,0.00,VWS V14.01,2013-03-07 04:48:00,
2013-03-06 23:51:00,28.8,25.4,30.08,ENE,69,0.0,6.0,87,0.00,,OVC026,0.02,0.00,VWS V14.01,2013-03-07 04:51:00,
2013-03-06 23:52:00,28.8,25.4,30.08,NE,37,2.0,6.0,87,0.00,,OVC026,0.02,0.00,VWS V14.01,2013-03-07 04:52:00,
2013-03-06 23:53:00,28.8,25.4,30.08,ESE,103,2.0,6.0,87,0.00,,OVC026,0.02,0.00,VWS V14.01,2013-03-07 04:53:00,
2013-03-06 23:56:00,28.8,25.7,30.08,ENE,59,0.0,6.0,88,0.00,,OVC026,0.02,0.00,VWS V14.01,2013-03-07 04:56:00,
2013-03-06 23:57:00,28.8,25.7,30.08,NNE,32,0.0,6.0,88,0.00,,OVC026,0.02,0.00,VWS V14.01,2013-03-07 04:57:00,
2013-03-06 23:58:00,28.8,25.7,30.08,NE,44,2.0,6.0,88,0.00,,OVC026,0.02,0.00,VWS V14.01,2013-03-07 04:58:00,